Wetterdaten: Sonntag, 11.09.2016
Datum Zeit Temp. A. Feuchte A. Luftdruck Regen Wind Richtung Richtung Sonnenschein ET UV Solar Taupunkt Windchill Windben Empfang
11.09.2016 00:00 18,1 C 85 % 1014,0 hPa 0,0 l/m 1,1 km/h (1 Bft) O-NO 71 0 min 0,000 mm 0,0 UV-I 0 W/m 15,5 C 18,1 C 1,6 km/h (1 Bft) 100,00 %
11.09.2016 00:02 17,8 C 86 % 1014,0 hPa 0,0 l/m 0,0 km/h (0 Bft) O-NO 71 0 min 0,000 mm 0,0 UV-I 0 W/m 15,4 C 17,8 C 0,0 km/h (0 Bft) 97,37 %
11.09.2016 00:04 17,6 C 87 % 1014,0 hPa 0,0 l/m 0,1 km/h (0 Bft) O-NO 71 0 min 0,000 mm 0,0 UV-I 0 W/m 15,4 C 17,6 C 1,6 km/h (1 Bft) 100,00 %
11.09.2016 00:06 17,5 C 88 % 1014,1 hPa 0,0 l/m 2,3 km/h (1 Bft) O-SO 105 0 min 0,000 mm 0,0 UV-I 0 W/m 15,5 C 17,5 C 4,8 km/h (1 Bft) 100,00 %
11.09.2016 00:08 17,4 C 88 % 1014,0 hPa 0,0 l/m 4,5 km/h (1 Bft) SO 146 0 min 0,000 mm 0,0 UV-I 0 W/m 15,4 C 17,4 C 4,8 km/h (1 Bft) 100,00 %
11.09.2016 00:10 17,3 C 87 % 1014,1 hPa 0,0 l/m 2,2 km/h (1 Bft) S-SO 151 0 min 0,000 mm 0,0 UV-I 0 W/m 15,1 C 17,3 C 4,8 km/h (1 Bft) 100,00 %
11.09.2016 00:12 17,1 C 87 % 1014,1 hPa 0,0 l/m 0,6 km/h (0 Bft) S-SO 151 0 min 0,000 mm 0,0 UV-I 0 W/m 14,9 C 17,1 C 1,6 km/h (1 Bft) 100,00 %
11.09.2016 00:14 16,9 C 88 % 1014,1 hPa 0,0 l/m 1,0 km/h (0 Bft) S-SO 151 0 min 0,000 mm 0,0 UV-I 0 W/m 14,9 C 16,9 C 4,8 km/h (1 Bft) 100,00 %
11.09.2016 00:16 16,8 C 90 % 1014,1 hPa 0,0 l/m 2,1 km/h (1 Bft) S-SO 151 0 min 0,000 mm 0,0 UV-I 0 W/m 15,1 C 16,8 C 4,8 km/h (1 Bft) 100,00 %
11.09.2016 00:18 16,9 C 90 % 1014,1 hPa 0,0 l/m 2,5 km/h (1 Bft) S-SO 151 0 min 0,000 mm 0,0 UV-I 0 W/m 15,2 C 16,9 C 4,8 km/h (1 Bft) 100,00 %
11.09.2016 00:20 17,0 C 89 % 1014,1 hPa 0,0 l/m 3,1 km/h (1 Bft) O-SO 117 0 min 0,000 mm 0,0 UV-I 0 W/m 15,2 C 17,0 C 4,8 km/h (1 Bft) 100,00 %
11.09.2016 00:22 17,0 C 89 % 1014,1 hPa 0,0 l/m 4,5 km/h (1 Bft) O 99 0 min 0,000 mm 0,0 UV-I 0 W/m 15,2 C 17,0 C 6,4 km/h (2 Bft) 98,36 %
11.09.2016 00:24 17,0 C 89 % 1014,1 hPa 0,0 l/m 4,5 km/h (1 Bft) O 98 0 min 0,000 mm 0,0 UV-I 0 W/m 15,2 C 17,0 C 4,8 km/h (1 Bft) 100,00 %
11.09.2016 00:26 17,2 C 89 % 1014,1 hPa 0,0 l/m 4,1 km/h (1 Bft) O 95 0 min 0,000 mm 0,0 UV-I 0 W/m 15,4 C 17,2 C 4,8 km/h (1 Bft) 100,00 %
11.09.2016 00:28 17,4 C 88 % 1014,0 hPa 0,0 l/m 3,3 km/h (1 Bft) O 95 0 min 0,000 mm 0,0 UV-I 0 W/m 15,4 C 17,4 C 4,8 km/h (1 Bft) 100,00 %
11.09.2016 00:30 17,7 C 87 % 1014,0 hPa 0,0 l/m 2,3 km/h (1 Bft) O 95 0 min 0,000 mm 0,0 UV-I 0 W/m 15,5 C 17,7 C 3,2 km/h (1 Bft) 97,87 %
11.09.2016 00:32 17,9 C 85 % 1014,0 hPa 0,0 l/m 1,9 km/h (1 Bft) O 95 0 min 0,000 mm 0,0 UV-I 0 W/m 15,3 C 17,9 C 3,2 km/h (1 Bft) 100,00 %
11.09.2016 00:34 17,6 C 85 % 1014,0 hPa 0,0 l/m 4,0 km/h (1 Bft) S 189 0 min 0,000 mm 0,0 UV-I 0 W/m 15,0 C 17,6 C 6,4 km/h (2 Bft) 98,11 %
11.09.2016 00:36 17,3 C 87 % 1014,0 hPa 0,0 l/m 4,2 km/h (1 Bft) S 189 0 min 0,000 mm 0,0 UV-I 0 W/m 15,1 C 17,3 C 6,4 km/h (2 Bft) 100,00 %
11.09.2016 00:38 17,1 C 88 % 1014,1 hPa 0,0 l/m 2,7 km/h (1 Bft) S 189 0 min 0,000 mm 0,0 UV-I 0 W/m 15,1 C 17,1 C 4,8 km/h (1 Bft) 98,11 %
11.09.2016 00:40 16,8 C 89 % 1014,1 hPa 0,0 l/m 2,2 km/h (1 Bft) S 189 0 min 0,000 mm 0,0 UV-I 0 W/m 15,0 C 16,8 C 3,2 km/h (1 Bft) 100,00 %
11.09.2016 00:42 16,8 C 89 % 1014,1 hPa 0,0 l/m 1,5 km/h (1 Bft) S 189 0 min 0,000 mm 0,0 UV-I 0 W/m 15,0 C 16,8 C 3,2 km/h (1 Bft) 100,00 %
11.09.2016 00:44 16,8 C 89 % 1014,2 hPa 0,0 l/m 1,8 km/h (1 Bft) S 189 0 min 0,000 mm 0,0 UV-I 0 W/m 15,0 C 16,8 C 3,2 km/h (1 Bft) 100,00 %
11.09.2016 00:46 16,7 C 89 % 1014,2 hPa 0,0 l/m 2,2 km/h (1 Bft) S 189 0 min 0,000 mm 0,0 UV-I 0 W/m 14,9 C 16,7 C 4,8 km/h (1 Bft) 100,00 %
11.09.2016 00:48 16,6 C 89 % 1014,2 hPa 0,0 l/m 2,2 km/h (1 Bft) S 189 0 min 0,000 mm 0,0 UV-I 0 W/m 14,8 C 16,6 C 4,8 km/h (1 Bft) 100,00 %
11.09.2016 00:50 16,4 C 89 % 1014,2 hPa 0,0 l/m 2,9 km/h (1 Bft) S 188 0 min 0,000 mm 0,0 UV-I 0 W/m 14,6 C 16,4 C 4,8 km/h (1 Bft) 100,00 %
11.09.2016 00:52 16,4 C 90 % 1014,2 hPa 0,0 l/m 1,5 km/h (1 Bft) S 188 0 min 0,000 mm 0,0 UV-I 0 W/m 14,8 C 16,4 C 3,2 km/h (1 Bft) 97,73 %
11.09.2016 00:54 16,3 C 90 % 1014,2 hPa 0,0 l/m 0,9 km/h (0 Bft) S 188 0 min 0,000 mm 0,0 UV-I 0 W/m 14,7 C 16,3 C 1,6 km/h (1 Bft) 98,00 %
11.09.2016 00:56 16,2 C 90 % 1014,3 hPa 0,0 l/m 1,7 km/h (1 Bft) S 188 0 min 0,000 mm 0,0 UV-I 0 W/m 14,6 C 16,2 C 3,2 km/h (1 Bft) 96,00 %
11.09.2016 00:58 16,2 C 91 % 1014,2 hPa 0,0 l/m 1,6 km/h (1 Bft) S 188 0 min 0,000 mm 0,0 UV-I 0 W/m 14,7 C 16,2 C 3,2 km/h (1 Bft) 94,00 %
11.09.2016 01:00 16,2 C 91 % 1014,3 hPa 0,0 l/m 1,3 km/h (1 Bft) S 188 0 min 0,000 mm 0,0 UV-I 0 W/m 14,7 C 16,2 C 3,2 km/h (1 Bft) 100,00 %
11.09.2016 01:02 16,3 C 92 % 1014,3 hPa 0,0 l/m 3,2 km/h (1 Bft) S 188 0 min 0,000 mm 0,0 UV-I 0 W/m 15,0 C 16,3 C 4,8 km/h (1 Bft) 95,74 %
11.09.2016 01:04 16,4 C 92 % 1014,3 hPa 0,0 l/m 1,5 km/h (1 Bft) S 188 0 min 0,000 mm 0,0 UV-I 0 W/m 15,1 C 16,4 C 4,8 km/h (1 Bft) 98,11 %
11.09.2016 01:06 16,6 C 91 % 1014,3 hPa 0,0 l/m 0,0 km/h (0 Bft) S 188 0 min 0,000 mm 0,0 UV-I 0 W/m 15,1 C 16,6 C 0,0 km/h (0 Bft) 97,87 %
11.09.2016 01:08 16,7 C 91 % 1014,2 hPa 0,0 l/m 0,3 km/h (0 Bft) S 188 0 min 0,000 mm 0,0 UV-I 0 W/m 15,2 C 16,7 C 1,6 km/h (1 Bft) 97,44 %
11.09.2016 01:10 16,7 C 91 % 1014,2 hPa 0,0 l/m 2,1 km/h (1 Bft) S 188 0 min 0,000 mm 0,0 UV-I 0 W/m 15,2 C 16,7 C 3,2 km/h (1 Bft) 98,00 %
11.09.2016 01:12 16,7 C 91 % 1014,3 hPa 0,0 l/m 0,1 km/h (0 Bft) S 188 0 min 0,000 mm 0,0 UV-I 0 W/m 15,2 C 16,7 C 1,6 km/h (1 Bft) 98,00 %
11.09.2016 01:14 16,7 C 90 % 1014,2 hPa 0,0 l/m 0,4 km/h (0 Bft) S 188 0 min 0,000 mm 0,0 UV-I 0 W/m 15,0 C 16,7 C 1,6 km/h (1 Bft) 97,87 %
11.09.2016 01:16 16,7 C 90 % 1014,3 hPa 0,0 l/m 0,8 km/h (0 Bft) S 188 0 min 0,000 mm 0,0 UV-I 0 W/m 15,0 C 16,7 C 1,6 km/h (1 Bft) 95,74 %
11.09.2016 01:18 16,6 C 90 % 1014,3 hPa 0,0 l/m 0,0 km/h (0 Bft) S 188 0 min 0,000 mm 0,0 UV-I 0 W/m 15,0 C 16,6 C 1,6 km/h (1 Bft) 97,73 %
11.09.2016 01:20 16,6 C 90 % 1014,3 hPa 0,0 l/m 0,0 km/h (0 Bft) S 188 0 min 0,000 mm 0,0 UV-I 0 W/m 15,0 C 16,6 C 1,6 km/h (1 Bft) 95,74 %
11.09.2016 01:22 16,6 C 90 % 1014,3 hPa 0,0 l/m 1,1 km/h (1 Bft) S 188 0 min 0,000 mm 0,0 UV-I 0 W/m 15,0 C 16,6 C 1,6 km/h (1 Bft) 98,00 %
11.09.2016 01:24 16,6 C 90 % 1014,3 hPa 0,0 l/m 1,5 km/h (1 Bft) S 188 0 min 0,000 mm 0,0 UV-I 0 W/m 15,0 C 16,6 C 1,6 km/h (1 Bft) 98,00 %
11.09.2016 01:26 16,6 C 90 % 1014,3 hPa 0,0 l/m 2,0 km/h (1 Bft) S 188 0 min 0,000 mm 0,0 UV-I 0 W/m 15,0 C 16,6 C 3,2 km/h (1 Bft) 100,00 %
11.09.2016 01:28 16,6 C 90 % 1014,2 hPa 0,0 l/m 2,2 km/h (1 Bft) S 188 0 min 0,000 mm 0,0 UV-I 0 W/m 15,0 C 16,6 C 3,2 km/h (1 Bft) 100,00 %
11.09.2016 01:30 16,5 C 91 % 1014,3 hPa 0,0 l/m 2,1 km/h (1 Bft) S 188 0 min 0,000 mm 0,0 UV-I 0 W/m 15,0 C 16,5 C 3,2 km/h (1 Bft) 100,00 %
11.09.2016 01:32 16,5 C 91 % 1014,2 hPa 0,0 l/m 2,0 km/h (1 Bft) S 188 0 min 0,000 mm 0,0 UV-I 0 W/m 15,0 C 16,5 C 3,2 km/h (1 Bft) 98,00 %
11.09.2016 01:34 16,4 C 91 % 1014,3 hPa 0,0 l/m 3,7 km/h (1 Bft) S 188 0 min 0,000 mm 0,0 UV-I 0 W/m 14,9 C 16,4 C 4,8 km/h (1 Bft) 97,14 %
11.09.2016 01:36 16,4 C 91 % 1014,3 hPa 0,0 l/m 3,8 km/h (1 Bft) S 188 0 min 0,000 mm 0,0 UV-I 0 W/m 14,9 C 16,4 C 4,8 km/h (1 Bft) 98,21 %
11.09.2016 01:38 16,4 C 92 % 1014,3 hPa 0,0 l/m 3,7 km/h (1 Bft) S 188 0 min 0,000 mm 0,0 UV-I 0 W/m 15,1 C 16,4 C 4,8 km/h (1 Bft) 100,00 %
11.09.2016 01:40 16,4 C 92 % 1014,3 hPa 0,0 l/m 2,9 km/h (1 Bft) S 188 0 min 0,000 mm 0,0 UV-I 0 W/m 15,1 C 16,4 C 3,2 km/h (1 Bft) 100,00 %
11.09.2016 01:42 16,5 C 93 % 1014,3 hPa 0,0 l/m 1,7 km/h (1 Bft) S 188 0 min 0,000 mm 0,0 UV-I 0 W/m 15,4 C 16,5 C 3,2 km/h (1 Bft) 100,00 %
11.09.2016 01:44 16,5 C 92 % 1014,3 hPa 0,0 l/m 1,0 km/h (0 Bft) S 188 0 min 0,000 mm 0,0 UV-I 0 W/m 15,2 C 16,5 C 1,6 km/h (1 Bft) 100,00 %
11.09.2016 01:46 16,4 C 92 % 1014,4 hPa 0,0 l/m 0,8 km/h (0 Bft) S 188 0 min 0,000 mm 0,0 UV-I 0 W/m 15,1 C 16,4 C 1,6 km/h (1 Bft) 97,44 %
11.09.2016 01:48 16,3 C 92 % 1014,4 hPa 0,0 l/m 2,6 km/h (1 Bft) S 188 0 min 0,000 mm 0,0 UV-I 0 W/m 15,0 C 16,3 C 3,2 km/h (1 Bft) 95,74 %
11.09.2016 01:50 16,3 C 93 % 1014,4 hPa 0,0 l/m 2,9 km/h (1 Bft) S 188 0 min 0,000 mm 0,0 UV-I 0 W/m 15,2 C 16,3 C 3,2 km/h (1 Bft) 98,00 %
11.09.2016 01:52 16,4 C 93 % 1014,3 hPa 0,0 l/m 2,1 km/h (1 Bft) S 188 0 min 0,000 mm 0,0 UV-I 0 W/m 15,3 C 16,4 C 3,2 km/h (1 Bft) 100,00 %
11.09.2016 01:54 16,5 C 93 % 1014,3 hPa 0,0 l/m 1,7 km/h (1 Bft) S 188 0 min 0,000 mm 0,0 UV-I 0 W/m 15,4 C 16,5 C 3,2 km/h (1 Bft) 97,14 %
11.09.2016 01:56 16,6 C 93 % 1014,3 hPa 0,0 l/m 1,6 km/h (1 Bft) S 188 0 min 0,000 mm 0,0 UV-I 0 W/m 15,5 C 16,6 C 3,2 km/h (1 Bft) 100,00 %
11.09.2016 01:58 16,4 C 92 % 1014,3 hPa 0,0 l/m 1,1 km/h (1 Bft) S 188 0 min 0,000 mm 0,0 UV-I 0 W/m 15,1 C 16,4 C 1,6 km/h (1 Bft) 98,00 %
11.09.2016 02:00 16,3 C 93 % 1014,3 hPa 0,0 l/m 1,2 km/h (1 Bft) S 188 0 min 0,000 mm 0,0 UV-I 0 W/m 15,2 C 16,3 C 3,2 km/h (1 Bft) 97,56 %
11.09.2016 02:02 16,2 C 93 % 1014,3 hPa 0,0 l/m 2,7 km/h (1 Bft) S 188 0 min 0,000 mm 0,0 UV-I 0 W/m 15,1 C 16,2 C 3,2 km/h (1 Bft) 98,11 %
11.09.2016 02:04 16,2 C 93 % 1014,3 hPa 0,0 l/m 1,8 km/h (1 Bft) S 188 0 min 0,000 mm 0,0 UV-I 0 W/m 15,1 C 16,2 C 3,2 km/h (1 Bft) 97,37 %
11.09.2016 02:06 16,1 C 93 % 1014,3 hPa 0,0 l/m 0,6 km/h (0 Bft) S 188 0 min 0,000 mm 0,0 UV-I 0 W/m 15,0 C 16,1 C 3,2 km/h (1 Bft) 100,00 %
11.09.2016 02:08 16,0 C 93 % 1014,3 hPa 0,0 l/m 0,7 km/h (0 Bft) S 188 0 min 0,000 mm 0,0 UV-I 0 W/m 14,9 C 16,0 C 1,6 km/h (1 Bft) 100,00 %
11.09.2016 02:10 16,1 C 93 % 1014,3 hPa 0,0 l/m 0,8 km/h (0 Bft) S 188 0 min 0,000 mm 0,0 UV-I 0 W/m 15,0 C 16,1 C 1,6 km/h (1 Bft) 100,00 %
11.09.2016 02:12 16,1 C 94 % 1014,3 hPa 0,0 l/m 1,4 km/h (1 Bft) S 188 0 min 0,000 mm 0,0 UV-I 0 W/m 15,1 C 16,1 C 3,2 km/h (1 Bft) 100,00 %
11.09.2016 02:14 16,2 C 94 % 1014,4 hPa 0,0 l/m 1,6 km/h (1 Bft) S 188 0 min 0,000 mm 0,0 UV-I 0 W/m 15,2 C 16,2 C 3,2 km/h (1 Bft) 100,00 %
11.09.2016 02:16 16,3 C 94 % 1014,4 hPa 0,0 l/m 1,0 km/h (0 Bft) S 188 0 min 0,000 mm 0,0 UV-I 0 W/m 15,3 C 16,3 C 1,6 km/h (1 Bft) 98,11 %
11.09.2016 02:18 16,4 C 95 % 1014,4 hPa 0,0 l/m 0,0 km/h (0 Bft) S 188 0 min 0,000 mm 0,0 UV-I 0 W/m 15,6 C 16,4 C 1,6 km/h (1 Bft) 100,00 %
11.09.2016 02:20 16,4 C 95 % 1014,4 hPa 0,0 l/m 0,5 km/h (0 Bft) S 188 0 min 0,000 mm 0,0 UV-I 0 W/m 15,6 C 16,4 C 1,6 km/h (1 Bft) 98,00 %
11.09.2016 02:22 16,6 C 95 % 1014,4 hPa 0,0 l/m 1,9 km/h (1 Bft) S 188 0 min 0,000 mm 0,0 UV-I 0 W/m 15,8 C 16,6 C 3,2 km/h (1 Bft) 100,00 %
11.09.2016 02:24 16,5 C 94 % 1014,4 hPa 0,0 l/m 3,6 km/h (1 Bft) S 188 0 min 0,000 mm 0,0 UV-I 0 W/m 15,5 C 16,5 C 4,8 km/h (1 Bft) 98,08 %
11.09.2016 02:26 16,3 C 94 % 1014,4 hPa 0,0 l/m 4,2 km/h (1 Bft) S 189 0 min 0,000 mm 0,0 UV-I 0 W/m 15,3 C 16,3 C 4,8 km/h (1 Bft) 100,00 %
11.09.2016 02:28 16,1 C 93 % 1014,4 hPa 0,0 l/m 4,2 km/h (1 Bft) S 189 0 min 0,000 mm 0,0 UV-I 0 W/m 15,0 C 16,1 C 4,8 km/h (1 Bft) 100,00 %
11.09.2016 02:30 16,0 C 94 % 1014,3 hPa 0,0 l/m 3,4 km/h (1 Bft) S 189 0 min 0,000 mm 0,0 UV-I 0 W/m 15,0 C 16,0 C 4,8 km/h (1 Bft) 98,00 %
11.09.2016 02:32 15,9 C 94 % 1014,4 hPa 0,0 l/m 3,1 km/h (1 Bft) S 189 0 min 0,000 mm 0,0 UV-I 0 W/m 14,9 C 15,9 C 4,8 km/h (1 Bft) 100,00 %
11.09.2016 02:34 16,0 C 95 % 1014,4 hPa 0,0 l/m 2,6 km/h (1 Bft) S 189 0 min 0,000 mm 0,0 UV-I 0 W/m 15,2 C 16,0 C 3,2 km/h (1 Bft) 100,00 %
11.09.2016 02:36 16,1 C 95 % 1014,4 hPa 0,0 l/m 3,4 km/h (1 Bft) S 189 0 min 0,000 mm 0,0 UV-I 0 W/m 15,3 C 16,1 C 4,8 km/h (1 Bft) 100,00 %
11.09.2016 02:38 16,1 C 95 % 1014,4 hPa 0,0 l/m 3,3 km/h (1 Bft) S 189 0 min 0,000 mm 0,0 UV-I 0 W/m 15,3 C 16,1 C 4,8 km/h (1 Bft) 100,00 %
11.09.2016 02:40 16,1 C 95 % 1014,4 hPa 0,0 l/m 2,7 km/h (1 Bft) S 189 0 min 0,000 mm 0,0 UV-I 0 W/m 15,3 C 16,1 C 3,2 km/h (1 Bft) 100,00 %
11.09.2016 02:42 16,0 C 95 % 1014,4 hPa 0,0 l/m 2,5 km/h (1 Bft) S 189 0 min 0,000 mm 0,0 UV-I 0 W/m 15,2 C 16,0 C 3,2 km/h (1 Bft) 100,00 %
11.09.2016 02:44 15,9 C 94 % 1014,4 hPa 0,0 l/m 2,0 km/h (1 Bft) S 189 0 min 0,000 mm 0,0 UV-I 0 W/m 14,9 C 15,9 C 3,2 km/h (1 Bft) 100,00 %
11.09.2016 02:46 15,9 C 94 % 1014,4 hPa 0,0 l/m 2,7 km/h (1 Bft) S 189 0 min 0,000 mm 0,0 UV-I 0 W/m 14,9 C 15,9 C 4,8 km/h (1 Bft) 100,00 %
11.09.2016 02:48 15,9 C 95 % 1014,4 hPa 0,0 l/m 1,7 km/h (1 Bft) S 189 0 min 0,000 mm 0,0 UV-I 0 W/m 15,1 C 15,9 C 3,2 km/h (1 Bft) 100,00 %
11.09.2016 02:50 15,9 C 95 % 1014,4 hPa 0,0 l/m 0,0 km/h (0 Bft) S 189 0 min 0,000 mm 0,0 UV-I 0 W/m 15,1 C 15,9 C 0,0 km/h (0 Bft) 100,00 %
11.09.2016 02:52 16,1 C 95 % 1014,4 hPa 0,0 l/m 0,0 km/h (0 Bft) S 189 0 min 0,000 mm 0,0 UV-I 0 W/m 15,3 C 16,1 C 0,0 km/h (0 Bft) 100,00 %
11.09.2016 02:54 16,1 C 95 % 1014,4 hPa 0,0 l/m 0,0 km/h (0 Bft) S 189 0 min 0,000 mm 0,0 UV-I 0 W/m 15,3 C 16,1 C 1,6 km/h (1 Bft) 100,00 %
11.09.2016 02:56 16,2 C 96 % 1014,4 hPa 0,0 l/m 0,0 km/h (0 Bft) S 189 0 min 0,000 mm 0,0 UV-I 0 W/m 15,6 C 16,2 C 1,6 km/h (1 Bft) 98,00 %
11.09.2016 02:58 16,2 C 96 % 1014,4 hPa 0,0 l/m 0,0 km/h (0 Bft) S 189 0 min 0,000 mm 0,0 UV-I 0 W/m 15,6 C 16,2 C 1,6 km/h (1 Bft) 97,87 %
11.09.2016 03:00 16,2 C 96 % 1014,4 hPa 0,0 l/m 0,0 km/h (0 Bft) S 189 0 min 0,000 mm 0,0 UV-I 0 W/m 15,6 C 16,2 C 0,0 km/h (0 Bft) 94,87 %
11.09.2016 03:02 16,3 C 96 % 1014,4 hPa 0,0 l/m 0,8 km/h (0 Bft) S 189 0 min 0,000 mm 0,0 UV-I 0 W/m 15,7 C 16,3 C 1,6 km/h (1 Bft) 93,88 %
11.09.2016 03:04 16,3 C 96 % 1014,4 hPa 0,0 l/m 0,7 km/h (0 Bft) S 189 0 min 0,000 mm 0,0 UV-I 0 W/m 15,7 C 16,3 C 1,6 km/h (1 Bft) 94,00 %
11.09.2016 03:06 16,4 C 96 % 1014,4 hPa 0,0 l/m 0,4 km/h (0 Bft) S 189 0 min 0,000 mm 0,0 UV-I 0 W/m 15,8 C 16,4 C 1,6 km/h (1 Bft) 96,00 %
11.09.2016 03:08 16,4 C 96 % 1014,4 hPa 0,0 l/m 0,1 km/h (0 Bft) S 189 0 min 0,000 mm 0,0 UV-I 0 W/m 15,8 C 16,4 C 1,6 km/h (1 Bft) 97,92 %
11.09.2016 03:10 16,3 C 95 % 1014,4 hPa 0,0 l/m 0,9 km/h (0 Bft) S 189 0 min 0,000 mm 0,0 UV-I 0 W/m 15,5 C 16,3 C 1,6 km/h (1 Bft) 95,12 %
11.09.2016 03:12 16,3 C 95 % 1014,5 hPa 0,0 l/m 0,3 km/h (0 Bft) S 189 0 min 0,000 mm 0,0 UV-I 0 W/m 15,5 C 16,3 C 1,6 km/h (1 Bft) 98,00 %
11.09.2016 03:14 16,2 C 95 % 1014,5 hPa 0,0 l/m 0,1 km/h (0 Bft) S 189 0 min 0,000 mm 0,0 UV-I 0 W/m 15,4 C 16,2 C 1,6 km/h (1 Bft) 97,87 %
11.09.2016 03:16 16,1 C 95 % 1014,5 hPa 0,0 l/m 0,0 km/h (0 Bft) S 189 0 min 0,000 mm 0,0 UV-I 0 W/m 15,3 C 16,1 C 0,0 km/h (0 Bft) 94,74 %
11.09.2016 03:18 16,0 C 95 % 1014,5 hPa 0,0 l/m 0,0 km/h (0 Bft) S 189 0 min 0,000 mm 0,0 UV-I 0 W/m 15,2 C 16,0 C 0,0 km/h (0 Bft) 96,23 %
11.09.2016 03:20 15,9 C 95 % 1014,5 hPa 0,0 l/m 0,0 km/h (0 Bft) S 189 0 min 0,000 mm 0,0 UV-I 0 W/m 15,1 C 15,9 C 0,0 km/h (0 Bft) 97,87 %
11.09.2016 03:22 16,0 C 95 % 1014,5 hPa 0,0 l/m 1,0 km/h (0 Bft) S 189 0 min 0,000 mm 0,0 UV-I 0 W/m 15,2 C 16,0 C 3,2 km/h (1 Bft) 98,00 %
11.09.2016 03:24 15,9 C 95 % 1014,4 hPa 0,0 l/m 1,8 km/h (1 Bft) S 189 0 min 0,000 mm 0,0 UV-I 0 W/m 15,1 C 15,9 C 3,2 km/h (1 Bft) 97,37 %
11.09.2016 03:26 15,9 C 95 % 1014,4 hPa 0,0 l/m 1,5 km/h (1 Bft) S 189 0 min 0,000 mm 0,0 UV-I 0 W/m 15,1 C 15,9 C 1,6 km/h (1 Bft) 97,87 %
11.09.2016 03:28 15,9 C 95 % 1014,4 hPa 0,0 l/m 0,1 km/h (0 Bft) S 189 0 min 0,000 mm 0,0 UV-I 0 W/m 15,1 C 15,9 C 1,6 km/h (1 Bft) 98,11 %
11.09.2016 03:30 15,8 C 95 % 1014,4 hPa 0,0 l/m 0,0 km/h (0 Bft) S 189 0 min 0,000 mm 0,0 UV-I 0 W/m 15,0 C 15,8 C 0,0 km/h (0 Bft) 100,00 %
11.09.2016 03:32 15,5 C 94 % 1014,4 hPa 0,0 l/m 0,0 km/h (0 Bft) S 189 0 min 0,000 mm 0,0 UV-I 0 W/m 14,5 C 15,5 C 0,0 km/h (0 Bft) 100,00 %
11.09.2016 03:34 15,4 C 94 % 1014,4 hPa 0,0 l/m 0,5 km/h (0 Bft) S 189 0 min 0,000 mm 0,0 UV-I 0 W/m 14,4 C 15,4 C 1,6 km/h (1 Bft) 100,00 %
11.09.2016 03:36 15,5 C 95 % 1014,4 hPa 0,0 l/m 2,9 km/h (1 Bft) S 189 0 min 0,000 mm 0,0 UV-I 0 W/m 14,7 C 15,5 C 4,8 km/h (1 Bft) 96,23 %
11.09.2016 03:38 15,7 C 96 % 1014,5 hPa 0,0 l/m 2,5 km/h (1 Bft) S 189 0 min 0,000 mm 0,0 UV-I 0 W/m 15,1 C 15,7 C 3,2 km/h (1 Bft) 92,11 %
11.09.2016 03:40 15,7 C 96 % 1014,5 hPa 0,0 l/m 2,5 km/h (1 Bft) S 189 0 min 0,000 mm 0,0 UV-I 0 W/m 15,1 C 15,7 C 3,2 km/h (1 Bft) 100,00 %
11.09.2016 03:42 15,7 C 95 % 1014,5 hPa 0,0 l/m 1,3 km/h (1 Bft) S 189 0 min 0,000 mm 0,0 UV-I 0 W/m 14,9 C 15,7 C 3,2 km/h (1 Bft) 97,92 %
11.09.2016 03:44 15,8 C 96 % 1014,6 hPa 0,0 l/m 0,6 km/h (0 Bft) S 189 0 min 0,000 mm 0,0 UV-I 0 W/m 15,2 C 15,8 C 1,6 km/h (1 Bft) 100,00 %
11.09.2016 03:46 15,8 C 96 % 1014,7 hPa 0,0 l/m 2,2 km/h (1 Bft) S 189 0 min 0,000 mm 0,0 UV-I 0 W/m 15,2 C 15,8 C 3,2 km/h (1 Bft) 100,00 %
11.09.2016 03:48 15,8 C 96 % 1014,7 hPa 0,0 l/m 2,4 km/h (1 Bft) S 189 0 min 0,000 mm 0,0 UV-I 0 W/m 15,2 C 15,8 C 3,2 km/h (1 Bft) 100,00 %
11.09.2016 03:50 15,7 C 95 % 1014,6 hPa 0,0 l/m 2,3 km/h (1 Bft) S 189 0 min 0,000 mm 0,0 UV-I 0 W/m 14,9 C 15,7 C 3,2 km/h (1 Bft) 100,00 %
11.09.2016 03:52 15,7 C 95 % 1014,6 hPa 0,0 l/m 2,0 km/h (1 Bft) S 189 0 min 0,000 mm 0,0 UV-I 0 W/m 14,9 C 15,7 C 3,2 km/h (1 Bft) 100,00 %
11.09.2016 03:54 15,6 C 95 % 1014,7 hPa 0,0 l/m 1,7 km/h (1 Bft) S 189 0 min 0,000 mm 0,0 UV-I 0 W/m 14,8 C 15,6 C 3,2 km/h (1 Bft) 100,00 %
11.09.2016 03:56 15,6 C 95 % 1014,7 hPa 0,0 l/m 1,7 km/h (1 Bft) S 189 0 min 0,000 mm 0,0 UV-I 0 W/m 14,8 C 15,6 C 3,2 km/h (1 Bft) 97,56 %
11.09.2016 03:58 15,6 C 96 % 1014,6 hPa 0,0 l/m 1,7 km/h (1 Bft) S 189 0 min 0,000 mm 0,0 UV-I 0 W/m 15,0 C 15,6 C 3,2 km/h (1 Bft) 100,00 %
11.09.2016 04:00 15,6 C 96 % 1014,6 hPa 0,0 l/m 1,6 km/h (1 Bft) S 189 0 min 0,000 mm 0,0 UV-I 0 W/m 15,0 C 15,6 C 3,2 km/h (1 Bft) 100,00 %
11.09.2016 04:02 15,6 C 96 % 1014,6 hPa 0,0 l/m 1,8 km/h (1 Bft) S 189 0 min 0,000 mm 0,0 UV-I 0 W/m 15,0 C 15,6 C 3,2 km/h (1 Bft) 100,00 %
11.09.2016 04:04 15,6 C 96 % 1014,7 hPa 0,0 l/m 2,1 km/h (1 Bft) S 189 0 min 0,000 mm 0,0 UV-I 0 W/m 15,0 C 15,6 C 3,2 km/h (1 Bft) 100,00 %
11.09.2016 04:06 15,5 C 96 % 1014,7 hPa 0,0 l/m 1,2 km/h (1 Bft) S 189 0 min 0,000 mm 0,0 UV-I 0 W/m 14,9 C 15,5 C 1,6 km/h (1 Bft) 97,14 %
11.09.2016 04:08 15,4 C 95 % 1014,7 hPa 0,0 l/m 0,7 km/h (0 Bft) S 189 0 min 0,000 mm 0,0 UV-I 0 W/m 14,6 C 15,4 C 1,6 km/h (1 Bft) 98,31 %
11.09.2016 04:10 15,3 C 95 % 1014,7 hPa 0,0 l/m 0,6 km/h (0 Bft) S 189 0 min 0,000 mm 0,0 UV-I 0 W/m 14,5 C 15,3 C 1,6 km/h (1 Bft) 97,37 %
11.09.2016 04:12 15,2 C 95 % 1014,7 hPa 0,0 l/m 1,1 km/h (1 Bft) S 189 0 min 0,000 mm 0,0 UV-I 0 W/m 14,4 C 15,2 C 1,6 km/h (1 Bft) 100,00 %
11.09.2016 04:14 15,3 C 96 % 1014,7 hPa 0,0 l/m 1,4 km/h (1 Bft) S 189 0 min 0,000 mm 0,0 UV-I 0 W/m 14,7 C 15,3 C 3,2 km/h (1 Bft) 95,74 %
11.09.2016 04:16 15,4 C 96 % 1014,7 hPa 0,0 l/m 1,7 km/h (1 Bft) S 189 0 min 0,000 mm 0,0 UV-I 0 W/m 14,8 C 15,4 C 3,2 km/h (1 Bft) 100,00 %
11.09.2016 04:18 15,6 C 96 % 1014,7 hPa 0,0 l/m 1,5 km/h (1 Bft) S 189 0 min 0,000 mm 0,0 UV-I 0 W/m 15,0 C 15,6 C 1,6 km/h (1 Bft) 100,00 %
11.09.2016 04:20 15,7 C 96 % 1014,7 hPa 0,0 l/m 1,4 km/h (1 Bft) S 189 0 min 0,000 mm 0,0 UV-I 0 W/m 15,1 C 15,7 C 1,6 km/h (1 Bft) 100,00 %
11.09.2016 04:22 15,6 C 96 % 1014,7 hPa 0,0 l/m 1,4 km/h (1 Bft) S 189 0 min 0,000 mm 0,0 UV-I 0 W/m 15,0 C 15,6 C 1,6 km/h (1 Bft) 95,83 %
11.09.2016 04:24 15,6 C 95 % 1014,7 hPa 0,0 l/m 1,3 km/h (1 Bft) S 189 0 min 0,000 mm 0,0 UV-I 0 W/m 14,8 C 15,6 C 3,2 km/h (1 Bft) 100,00 %
11.09.2016 04:26 15,4 C 95 % 1014,7 hPa 0,0 l/m 1,3 km/h (1 Bft) S 189 0 min 0,000 mm 0,0 UV-I 0 W/m 14,6 C 15,4 C 3,2 km/h (1 Bft) 100,00 %
11.09.2016 04:28 15,3 C 95 % 1014,7 hPa 0,0 l/m 0,7 km/h (0 Bft) S 189 0 min 0,000 mm 0,0 UV-I 0 W/m 14,5 C 15,3 C 1,6 km/h (1 Bft) 94,74 %
11.09.2016 04:30 15,3 C 95 % 1014,7 hPa 0,0 l/m 0,2 km/h (0 Bft) S 189 0 min 0,000 mm 0,0 UV-I 0 W/m 14,5 C 15,3 C 1,6 km/h (1 Bft) 100,00 %
11.09.2016 04:32 15,2 C 95 % 1014,8 hPa 0,0 l/m 0,0 km/h (0 Bft) S 189 0 min 0,000 mm 0,0 UV-I 0 W/m 14,4 C 15,2 C 1,6 km/h (1 Bft) 100,00 %
11.09.2016 04:34 15,2 C 95 % 1014,7 hPa 0,0 l/m 1,2 km/h (1 Bft) S 189 0 min 0,000 mm 0,0 UV-I 0 W/m 14,4 C 15,2 C 3,2 km/h (1 Bft) 100,00 %
11.09.2016 04:36 15,2 C 96 % 1014,8 hPa 0,0 l/m 3,4 km/h (1 Bft) S 189 0 min 0,000 mm 0,0 UV-I 0 W/m 14,6 C 15,2 C 4,8 km/h (1 Bft) 100,00 %
11.09.2016 04:38 15,2 C 96 % 1014,7 hPa 0,0 l/m 3,8 km/h (1 Bft) S 188 0 min 0,000 mm 0,0 UV-I 0 W/m 14,6 C 15,2 C 4,8 km/h (1 Bft) 100,00 %
11.09.2016 04:40 15,2 C 96 % 1014,7 hPa 0,0 l/m 3,0 km/h (1 Bft) S 188 0 min 0,000 mm 0,0 UV-I 0 W/m 14,6 C 15,2 C 4,8 km/h (1 Bft) 100,00 %
11.09.2016 04:42 15,2 C 96 % 1014,7 hPa 0,0 l/m 1,3 km/h (1 Bft) S 188 0 min 0,000 mm 0,0 UV-I 0 W/m 14,6 C 15,2 C 3,2 km/h (1 Bft) 100,00 %
11.09.2016 04:44 15,3 C 96 % 1014,8 hPa 0,0 l/m 0,0 km/h (0 Bft) S 188 0 min 0,000 mm 0,0 UV-I 0 W/m 14,7 C 15,3 C 0,0 km/h (0 Bft) 100,00 %
11.09.2016 04:46 15,4 C 96 % 1014,7 hPa 0,0 l/m 0,0 km/h (0 Bft) S 188 0 min 0,000 mm 0,0 UV-I 0 W/m 14,8 C 15,4 C 0,0 km/h (0 Bft) 100,00 %
11.09.2016 04:48 15,4 C 96 % 1014,7 hPa 0,0 l/m 0,0 km/h (0 Bft) S 188 0 min 0,000 mm 0,0 UV-I 0 W/m 14,8 C 15,4 C 0,0 km/h (0 Bft) 100,00 %
11.09.2016 04:50 15,4 C 96 % 1014,7 hPa 0,0 l/m 0,0 km/h (0 Bft) S 188 0 min 0,000 mm 0,0 UV-I 0 W/m 14,8 C 15,4 C 0,0 km/h (0 Bft) 100,00 %
11.09.2016 04:52 15,3 C 96 % 1014,7 hPa 0,0 l/m 0,0 km/h (0 Bft) S 188 0 min 0,000 mm 0,0 UV-I 0 W/m 14,7 C 15,3 C 0,0 km/h (0 Bft) 100,00 %
11.09.2016 04:54 15,3 C 96 % 1014,7 hPa 0,0 l/m 0,0 km/h (0 Bft) S 188 0 min 0,000 mm 0,0 UV-I 0 W/m 14,7 C 15,3 C 0,0 km/h (0 Bft) 100,00 %
11.09.2016 04:56 15,2 C 96 % 1014,7 hPa 0,0 l/m 0,0 km/h (0 Bft) S 188 0 min 0,000 mm 0,0 UV-I 0 W/m 14,6 C 15,2 C 0,0 km/h (0 Bft) 100,00 %
11.09.2016 04:58 15,1 C 95 % 1014,7 hPa 0,0 l/m 0,0 km/h (0 Bft) S 188 0 min 0,000 mm 0,0 UV-I 0 W/m 14,3 C 15,1 C 0,0 km/h (0 Bft) 97,87 %
11.09.2016 05:00 15,1 C 96 % 1014,7 hPa 0,0 l/m 0,1 km/h (0 Bft) S 188 0 min 0,000 mm 0,0 UV-I 0 W/m 14,5 C 15,1 C 1,6 km/h (1 Bft) 97,92 %
11.09.2016 05:02 15,1 C 96 % 1014,7 hPa 0,0 l/m 1,5 km/h (1 Bft) S 188 0 min 0,000 mm 0,0 UV-I 0 W/m 14,5 C 15,1 C 3,2 km/h (1 Bft) 95,74 %
11.09.2016 05:04 15,1 C 96 % 1014,7 hPa 0,0 l/m 1,7 km/h (1 Bft) S 189 0 min 0,000 mm 0,0 UV-I 0 W/m 14,5 C 15,1 C 3,2 km/h (1 Bft) 98,00 %
11.09.2016 05:06 15,2 C 96 % 1014,7 hPa 0,0 l/m 2,8 km/h (1 Bft) S 188 0 min 0,000 mm 0,0 UV-I 0 W/m 14,6 C 15,2 C 3,2 km/h (1 Bft) 97,14 %
11.09.2016 05:08 15,1 C 96 % 1014,8 hPa 0,0 l/m 2,3 km/h (1 Bft) S 188 0 min 0,000 mm 0,0 UV-I 0 W/m 14,5 C 15,1 C 3,2 km/h (1 Bft) 96,00 %
11.09.2016 05:10 14,9 C 96 % 1014,8 hPa 0,0 l/m 0,7 km/h (0 Bft) S 188 0 min 0,000 mm 0,0 UV-I 0 W/m 14,3 C 14,9 C 3,2 km/h (1 Bft) 98,11 %
11.09.2016 05:12 15,0 C 96 % 1014,8 hPa 0,0 l/m 0,0 km/h (0 Bft) S 188 0 min 0,000 mm 0,0 UV-I 0 W/m 14,4 C 15,0 C 0,0 km/h (0 Bft) 97,87 %
11.09.2016 05:14 15,1 C 96 % 1014,8 hPa 0,0 l/m 0,0 km/h (0 Bft) S 188 0 min 0,000 mm 0,0 UV-I 0 W/m 14,5 C 15,1 C 0,0 km/h (0 Bft) 97,56 %
11.09.2016 05:16 15,1 C 96 % 1014,8 hPa 0,0 l/m 0,0 km/h (0 Bft) S 188 0 min 0,000 mm 0,0 UV-I 0 W/m 14,5 C 15,1 C 0,0 km/h (0 Bft) 97,87 %
11.09.2016 05:18 15,1 C 96 % 1014,8 hPa 0,0 l/m 0,0 km/h (0 Bft) S 188 0 min 0,000 mm 0,0 UV-I 0 W/m 14,5 C 15,1 C 0,0 km/h (0 Bft) 97,87 %
11.09.2016 05:20 15,1 C 96 % 1014,8 hPa 0,0 l/m 0,0 km/h (0 Bft) S 188 0 min 0,000 mm 0,0 UV-I 0 W/m 14,5 C 15,1 C 0,0 km/h (0 Bft) 94,00 %
11.09.2016 05:22 15,0 C 96 % 1014,8 hPa 0,0 l/m 0,0 km/h (0 Bft) S 188 0 min 0,000 mm 0,0 UV-I 0 W/m 14,4 C 15,0 C 0,0 km/h (0 Bft) 97,87 %
11.09.2016 05:24 14,9 C 96 % 1014,8 hPa 0,0 l/m 0,0 km/h (0 Bft) S 188 0 min 0,000 mm 0,0 UV-I 0 W/m 14,3 C 14,9 C 0,0 km/h (0 Bft) 97,87 %
11.09.2016 05:26 14,9 C 96 % 1014,8 hPa 0,0 l/m 0,0 km/h (0 Bft) S 188 0 min 0,000 mm 0,0 UV-I 0 W/m 14,3 C 14,9 C 0,0 km/h (0 Bft) 97,87 %
11.09.2016 05:28 14,8 C 96 % 1014,8 hPa 0,0 l/m 0,0 km/h (0 Bft) S 188 0 min 0,000 mm 0,0 UV-I 0 W/m 14,2 C 14,8 C 0,0 km/h (0 Bft) 98,00 %
11.09.2016 05:30 14,7 C 96 % 1014,8 hPa 0,0 l/m 0,0 km/h (0 Bft) S 188 0 min 0,000 mm 0,0 UV-I 0 W/m 14,1 C 14,7 C 0,0 km/h (0 Bft) 96,00 %
11.09.2016 05:32 14,7 C 96 % 1014,9 hPa 0,0 l/m 0,0 km/h (0 Bft) S 188 0 min 0,000 mm 0,0 UV-I 0 W/m 14,1 C 14,7 C 0,0 km/h (0 Bft) 94,29 %
11.09.2016 05:34 14,7 C 96 % 1014,8 hPa 0,0 l/m 0,0 km/h (0 Bft) S 188 0 min 0,000 mm 0,0 UV-I 0 W/m 14,1 C 14,7 C 0,0 km/h (0 Bft) 96,00 %
11.09.2016 05:36 14,7 C 96 % 1014,8 hPa 0,0 l/m 0,0 km/h (0 Bft) S 188 0 min 0,000 mm 0,0 UV-I 0 W/m 14,1 C 14,7 C 0,0 km/h (0 Bft) 100,00 %
11.09.2016 05:38 14,6 C 95 % 1014,9 hPa 0,0 l/m 0,0 km/h (0 Bft) S 188 0 min 0,000 mm 0,0 UV-I 0 W/m 13,8 C 14,6 C 0,0 km/h (0 Bft) 94,00 %
11.09.2016 05:40 14,5 C 95 % 1014,9 hPa 0,0 l/m 0,0 km/h (0 Bft) S 188 0 min 0,000 mm 0,0 UV-I 0 W/m 13,7 C 14,5 C 0,0 km/h (0 Bft) 100,00 %
11.09.2016 05:42 14,6 C 96 % 1015,0 hPa 0,0 l/m 0,0 km/h (0 Bft) S 188 0 min 0,000 mm 0,0 UV-I 0 W/m 14,0 C 14,6 C 0,0 km/h (0 Bft) 100,00 %
11.09.2016 05:44 14,7 C 96 % 1015,0 hPa 0,0 l/m 1,6 km/h (1 Bft) S 188 0 min 0,000 mm 0,0 UV-I 0 W/m 14,1 C 14,7 C 3,2 km/h (1 Bft) 98,11 %
11.09.2016 05:46 14,7 C 96 % 1015,1 hPa 0,0 l/m 1,6 km/h (1 Bft) S 188 0 min 0,000 mm 0,0 UV-I 0 W/m 14,1 C 14,7 C 3,2 km/h (1 Bft) 98,11 %
11.09.2016 05:48 14,8 C 96 % 1015,0 hPa 0,0 l/m 0,3 km/h (0 Bft) S 188 0 min 0,000 mm 0,0 UV-I 0 W/m 14,2 C 14,8 C 1,6 km/h (1 Bft) 97,87 %
11.09.2016 05:50 14,8 C 96 % 1015,0 hPa 0,0 l/m 0,0 km/h (0 Bft) S 188 0 min 0,000 mm 0,0 UV-I 0 W/m 14,2 C 14,8 C 0,0 km/h (0 Bft) 97,87 %
11.09.2016 05:52 14,9 C 96 % 1015,0 hPa 0,0 l/m 0,0 km/h (0 Bft) S 188 0 min 0,000 mm 0,0 UV-I 0 W/m 14,3 C 14,9 C 0,0 km/h (0 Bft) 97,37 %
11.09.2016 05:54 14,9 C 96 % 1015,1 hPa 0,0 l/m 0,0 km/h (0 Bft) S 188 0 min 0,000 mm 0,0 UV-I 0 W/m 14,3 C 14,9 C 0,0 km/h (0 Bft) 100,00 %
11.09.2016 05:56 14,9 C 96 % 1015,0 hPa 0,0 l/m 0,0 km/h (0 Bft) S 188 0 min 0,000 mm 0,0 UV-I 0 W/m 14,3 C 14,9 C 0,0 km/h (0 Bft) 98,00 %
11.09.2016 05:58 14,9 C 96 % 1015,0 hPa 0,0 l/m 0,0 km/h (0 Bft) S 188 0 min 0,000 mm 0,0 UV-I 0 W/m 14,3 C 14,9 C 0,0 km/h (0 Bft) 100,00 %
11.09.2016 06:00 14,8 C 96 % 1015,0 hPa 0,0 l/m 0,0 km/h (0 Bft) S 188 0 min 0,000 mm 0,0 UV-I 0 W/m 14,2 C 14,8 C 0,0 km/h (0 Bft) 100,00 %
11.09.2016 06:02 14,7 C 96 % 1015,0 hPa 0,0 l/m 0,0 km/h (0 Bft) S 188 0 min 0,000 mm 0,0 UV-I 0 W/m 14,1 C 14,7 C 0,0 km/h (0 Bft) 100,00 %
11.09.2016 06:04 14,6 C 95 % 1015,0 hPa 0,0 l/m 0,0 km/h (0 Bft) S 188 0 min 0,000 mm 0,0 UV-I 0 W/m 13,8 C 14,6 C 0,0 km/h (0 Bft) 97,37 %
11.09.2016 06:06 14,6 C 96 % 1015,0 hPa 0,0 l/m 0,0 km/h (0 Bft) S 188 0 min 0,000 mm 0,0 UV-I 0 W/m 14,0 C 14,6 C 0,0 km/h (0 Bft) 97,87 %
11.09.2016 06:08 14,6 C 96 % 1015,0 hPa 0,0 l/m 0,0 km/h (0 Bft) S 188 0 min 0,000 mm 0,0 UV-I 0 W/m 14,0 C 14,6 C 0,0 km/h (0 Bft) 100,00 %
11.09.2016 06:10 14,6 C 96 % 1015,0 hPa 0,0 l/m 1,5 km/h (1 Bft) S 188 0 min 0,000 mm 0,0 UV-I 0 W/m 14,0 C 14,6 C 1,6 km/h (1 Bft) 100,00 %
11.09.2016 06:12 14,6 C 96 % 1015,0 hPa 0,0 l/m 1,4 km/h (1 Bft) S 188 0 min 0,000 mm 0,0 UV-I 0 W/m 14,0 C 14,6 C 3,2 km/h (1 Bft) 100,00 %
11.09.2016 06:14 14,6 C 96 % 1015,0 hPa 0,0 l/m 0,7 km/h (0 Bft) S 188 0 min 0,000 mm 0,0 UV-I 0 W/m 14,0 C 14,6 C 1,6 km/h (1 Bft) 100,00 %
11.09.2016 06:16 14,6 C 96 % 1015,1 hPa 0,0 l/m 0,9 km/h (0 Bft) S 188 0 min 0,000 mm 0,0 UV-I 0 W/m 14,0 C 14,6 C 1,6 km/h (1 Bft) 100,00 %
11.09.2016 06:18 14,5 C 96 % 1015,1 hPa 0,0 l/m 0,8 km/h (0 Bft) S 188 0 min 0,000 mm 0,0 UV-I 0 W/m 13,9 C 14,5 C 3,2 km/h (1 Bft) 97,22 %
11.09.2016 06:20 14,4 C 96 % 1015,2 hPa 0,0 l/m 1,3 km/h (1 Bft) S 188 0 min 0,000 mm 0,0 UV-I 0 W/m 13,8 C 14,4 C 3,2 km/h (1 Bft) 100,00 %
11.09.2016 06:22 14,4 C 96 % 1015,2 hPa 0,0 l/m 0,5 km/h (0 Bft) S 188 0 min 0,000 mm 0,0 UV-I 0 W/m 13,8 C 14,4 C 1,6 km/h (1 Bft) 100,00 %
11.09.2016 06:24 14,3 C 96 % 1015,2 hPa 0,0 l/m 0,7 km/h (0 Bft) S 188 0 min 0,000 mm 0,0 UV-I 0 W/m 13,7 C 14,3 C 3,2 km/h (1 Bft) 100,00 %
11.09.2016 06:26 14,3 C 96 % 1015,3 hPa 0,0 l/m 1,0 km/h (0 Bft) S 188 0 min 0,000 mm 0,0 UV-I 0 W/m 13,7 C 14,3 C 1,6 km/h (1 Bft) 100,00 %
11.09.2016 06:28 14,5 C 96 % 1015,3 hPa 0,0 l/m 0,1 km/h (0 Bft) S 188 0 min 0,000 mm 0,0 UV-I 0 W/m 13,9 C 14,5 C 1,6 km/h (1 Bft) 100,00 %
11.09.2016 06:30 14,6 C 97 % 1015,3 hPa 0,0 l/m 0,0 km/h (0 Bft) S 188 0 min 0,000 mm 0,0 UV-I 0 W/m 14,1 C 14,6 C 1,6 km/h (1 Bft) 100,00 %
11.09.2016 06:32 14,7 C 97 % 1015,3 hPa 0,0 l/m 0,1 km/h (0 Bft) S 188 0 min 0,000 mm 0,0 UV-I 0 W/m 14,2 C 14,7 C 1,6 km/h (1 Bft) 100,00 %
11.09.2016 06:34 14,8 C 97 % 1015,4 hPa 0,0 l/m 1,5 km/h (1 Bft) S 188 0 min 0,000 mm 0,0 UV-I 0 W/m 14,3 C 14,8 C 3,2 km/h (1 Bft) 98,00 %
11.09.2016 06:36 14,8 C 97 % 1015,4 hPa 0,0 l/m 1,5 km/h (1 Bft) S 188 0 min 0,000 mm 0,0 UV-I 0 W/m 14,3 C 14,8 C 3,2 km/h (1 Bft) 100,00 %
11.09.2016 06:38 14,8 C 97 % 1015,4 hPa 0,0 l/m 1,1 km/h (1 Bft) S 188 0 min 0,000 mm 0,0 UV-I 5 W/m 14,3 C 14,8 C 1,6 km/h (1 Bft) 100,00 %
11.09.2016 06:40 14,8 C 96 % 1015,4 hPa 0,0 l/m 1,4 km/h (1 Bft) S 188 0 min 0,000 mm 0,0 UV-I 5 W/m 14,2 C 14,8 C 1,6 km/h (1 Bft) 100,00 %
11.09.2016 06:42 14,7 C 96 % 1015,5 hPa 0,0 l/m 1,0 km/h (0 Bft) S 188 0 min 0,000 mm 0,0 UV-I 5 W/m 14,1 C 14,7 C 1,6 km/h (1 Bft) 100,00 %
11.09.2016 06:44 14,5 C 96 % 1015,5 hPa 0,0 l/m 0,3 km/h (0 Bft) S 188 0 min 0,000 mm 0,0 UV-I 5 W/m 13,9 C 14,5 C 1,6 km/h (1 Bft) 100,00 %
11.09.2016 06:46 14,4 C 96 % 1015,6 hPa 0,0 l/m 0,0 km/h (0 Bft) S 188 0 min 0,000 mm 0,0 UV-I 7 W/m 13,8 C 14,4 C 0,0 km/h (0 Bft) 97,37 %
11.09.2016 06:48 14,3 C 96 % 1015,6 hPa 0,0 l/m 0,4 km/h (0 Bft) S 188 0 min 0,000 mm 0,0 UV-I 7 W/m 13,7 C 14,3 C 1,6 km/h (1 Bft) 96,00 %
11.09.2016 06:50 14,3 C 96 % 1015,7 hPa 0,0 l/m 1,5 km/h (1 Bft) S 188 0 min 0,000 mm 0,0 UV-I 7 W/m 13,7 C 14,3 C 3,2 km/h (1 Bft) 100,00 %
11.09.2016 06:52 14,4 C 96 % 1015,6 hPa 0,0 l/m 2,0 km/h (1 Bft) S 188 0 min 0,000 mm 0,0 UV-I 8 W/m 13,8 C 14,4 C 3,2 km/h (1 Bft) 97,73 %
11.09.2016 06:54 14,4 C 96 % 1015,6 hPa 0,0 l/m 2,4 km/h (1 Bft) S 188 0 min 0,000 mm 0,0 UV-I 9 W/m 13,8 C 14,4 C 3,2 km/h (1 Bft) 100,00 %
11.09.2016 06:56 14,6 C 97 % 1015,7 hPa 0,0 l/m 1,7 km/h (1 Bft) S 188 0 min 0,000 mm 0,0 UV-I 10 W/m 14,1 C 14,6 C 3,2 km/h (1 Bft) 100,00 %
11.09.2016 06:58 14,7 C 97 % 1015,7 hPa 0,0 l/m 2,6 km/h (1 Bft) S 188 0 min 0,000 mm 0,0 UV-I 11 W/m 14,2 C 14,7 C 3,2 km/h (1 Bft) 96,00 %
11.09.2016 07:00 14,7 C 97 % 1015,7 hPa 0,0 l/m 3,1 km/h (1 Bft) S 188 0 min 0,000 mm 0,0 UV-I 12 W/m 14,2 C 14,7 C 4,8 km/h (1 Bft) 100,00 %
11.09.2016 07:02 14,7 C 96 % 1015,7 hPa 0,0 l/m 3,2 km/h (1 Bft) S 188 0 min 0,000 mm 0,0 UV-I 13 W/m 14,1 C 14,7 C 4,8 km/h (1 Bft) 93,62 %
11.09.2016 07:04 14,8 C 96 % 1015,7 hPa 0,0 l/m 2,9 km/h (1 Bft) S 188 0 min 0,000 mm 0,0 UV-I 15 W/m 14,2 C 14,8 C 4,8 km/h (1 Bft) 100,00 %
11.09.2016 07:06 14,7 C 96 % 1015,7 hPa 0,0 l/m 3,2 km/h (1 Bft) S 188 0 min 0,000 mm 0,0 UV-I 16 W/m 14,1 C 14,7 C 4,8 km/h (1 Bft) 95,74 %
11.09.2016 07:08 14,7 C 96 % 1015,7 hPa 0,0 l/m 2,6 km/h (1 Bft) S 188 0 min 0,000 mm 0,0 UV-I 18 W/m 14,1 C 14,7 C 4,8 km/h (1 Bft) 97,87 %
11.09.2016 07:10 14,7 C 96 % 1015,7 hPa 0,0 l/m 1,9 km/h (1 Bft) S 188 0 min 0,000 mm 0,0 UV-I 19 W/m 14,1 C 14,7 C 3,2 km/h (1 Bft) 97,56 %
11.09.2016 07:12 14,8 C 97 % 1015,7 hPa 0,0 l/m 1,7 km/h (1 Bft) S 188 0 min 0,000 mm 0,0 UV-I 20 W/m 14,3 C 14,8 C 3,2 km/h (1 Bft) 96,43 %
11.09.2016 07:14 14,8 C 96 % 1015,7 hPa 0,0 l/m 1,6 km/h (1 Bft) S 188 0 min 0,000 mm 0,0 UV-I 22 W/m 14,2 C 14,8 C 3,2 km/h (1 Bft) 95,12 %
11.09.2016 07:16 14,8 C 96 % 1015,7 hPa 0,0 l/m 2,1 km/h (1 Bft) S 188 0 min 0,000 mm 0,0 UV-I 24 W/m 14,2 C 14,8 C 3,2 km/h (1 Bft) 97,87 %
11.09.2016 07:18 14,8 C 97 % 1015,7 hPa 0,0 l/m 0,8 km/h (0 Bft) S 188 0 min 0,000 mm 0,0 UV-I 25 W/m 14,3 C 14,8 C 3,2 km/h (1 Bft) 98,00 %
11.09.2016 07:20 14,8 C 97 % 1015,7 hPa 0,0 l/m 0,9 km/h (0 Bft) S 188 0 min 0,000 mm 0,0 UV-I 26 W/m 14,3 C 14,8 C 1,6 km/h (1 Bft) 98,00 %
11.09.2016 07:22 14,7 C 96 % 1015,7 hPa 0,0 l/m 1,4 km/h (1 Bft) S 188 0 min 0,000 mm 0,0 UV-I 28 W/m 14,1 C 14,7 C 3,2 km/h (1 Bft) 95,74 %
11.09.2016 07:24 14,8 C 96 % 1015,7 hPa 0,0 l/m 0,6 km/h (0 Bft) S 188 0 min 0,000 mm 0,0 UV-I 30 W/m 14,2 C 14,8 C 1,6 km/h (1 Bft) 97,56 %
11.09.2016 07:26 14,9 C 97 % 1015,7 hPa 0,0 l/m 0,0 km/h (0 Bft) S 188 0 min 0,000 mm 0,0 UV-I 32 W/m 14,4 C 14,9 C 0,0 km/h (0 Bft) 97,87 %
11.09.2016 07:28 14,9 C 97 % 1015,8 hPa 0,0 l/m 0,3 km/h (0 Bft) S 188 0 min 0,000 mm 0,0 UV-I 36 W/m 14,4 C 14,9 C 3,2 km/h (1 Bft) 97,87 %
11.09.2016 07:30 15,0 C 96 % 1015,7 hPa 0,0 l/m 1,2 km/h (1 Bft) S 188 0 min 0,000 mm 0,0 UV-I 42 W/m 14,4 C 15,0 C 3,2 km/h (1 Bft) 97,87 %
11.09.2016 07:32 14,9 C 96 % 1015,8 hPa 0,0 l/m 0,0 km/h (0 Bft) S 188 0 min 0,000 mm 0,0 UV-I 46 W/m 14,3 C 14,9 C 1,6 km/h (1 Bft) 96,00 %
11.09.2016 07:34 14,9 C 96 % 1015,8 hPa 0,0 l/m 0,1 km/h (0 Bft) S 188 0 min 0,000 mm 0,0 UV-I 51 W/m 14,3 C 14,9 C 1,6 km/h (1 Bft) 97,87 %
11.09.2016 07:36 15,1 C 96 % 1015,8 hPa 0,0 l/m 0,7 km/h (0 Bft) S 188 0 min 0,000 mm 0,0 UV-I 54 W/m 14,5 C 15,1 C 1,6 km/h (1 Bft) 100,00 %
11.09.2016 07:38 15,2 C 97 % 1015,8 hPa 0,0 l/m 3,3 km/h (1 Bft) S 188 0 min 0,000 mm 0,0 UV-I 58 W/m 14,7 C 15,2 C 4,8 km/h (1 Bft) 100,00 %
11.09.2016 07:40 15,3 C 97 % 1015,8 hPa 0,0 l/m 3,8 km/h (1 Bft) S-SW 192 0 min 0,000 mm 0,0 UV-I 61 W/m 14,8 C 15,3 C 4,8 km/h (1 Bft) 100,00 %
11.09.2016 07:42 15,4 C 97 % 1015,8 hPa 0,0 l/m 3,6 km/h (1 Bft) S-SW 194 0 min 0,000 mm 0,0 UV-I 64 W/m 14,9 C 15,4 C 4,8 km/h (1 Bft) 100,00 %
11.09.2016 07:44 15,5 C 97 % 1015,9 hPa 0,0 l/m 3,4 km/h (1 Bft) S-SW 197 0 min 0,000 mm 0,0 UV-I 69 W/m 15,0 C 15,5 C 4,8 km/h (1 Bft) 100,00 %
11.09.2016 07:46 15,5 C 96 % 1015,8 hPa 0,0 l/m 2,2 km/h (1 Bft) S-SW 197 0 min 0,000 mm 0,0 UV-I 73 W/m 14,9 C 15,5 C 4,8 km/h (1 Bft) 97,37 %
11.09.2016 07:48 15,5 C 96 % 1015,9 hPa 0,0 l/m 2,3 km/h (1 Bft) S-SW 197 0 min 0,000 mm 0,0 UV-I 78 W/m 14,9 C 15,5 C 3,2 km/h (1 Bft) 100,00 %
11.09.2016 07:50 15,5 C 96 % 1015,9 hPa 0,0 l/m 1,5 km/h (1 Bft) S-SW 197 0 min 0,000 mm 0,0 UV-I 82 W/m 14,9 C 15,5 C 3,2 km/h (1 Bft) 96,23 %
11.09.2016 07:52 15,6 C 96 % 1016,0 hPa 0,0 l/m 3,8 km/h (1 Bft) S-SW 197 0 min 0,000 mm 0,0 UV-I 84 W/m 15,0 C 15,6 C 4,8 km/h (1 Bft) 100,00 %
11.09.2016 07:54 15,6 C 97 % 1015,9 hPa 0,0 l/m 2,8 km/h (1 Bft) S-SW 197 0 min 0,000 mm 0,0 UV-I 89 W/m 15,1 C 15,6 C 4,8 km/h (1 Bft) 100,00 %
11.09.2016 07:56 15,7 C 96 % 1016,0 hPa 0,0 l/m 3,1 km/h (1 Bft) S-SW 197 0 min 0,000 mm 0,0 UV-I 92 W/m 15,1 C 15,7 C 4,8 km/h (1 Bft) 98,11 %
11.09.2016 07:58 15,7 C 96 % 1016,0 hPa 0,0 l/m 3,0 km/h (1 Bft) S-SW 197 0 min 0,000 mm 0,0 UV-I 95 W/m 15,1 C 15,7 C 4,8 km/h (1 Bft) 100,00 %
11.09.2016 08:00 15,8 C 96 % 1016,1 hPa 0,0 l/m 2,8 km/h (1 Bft) S-SW 197 0 min 0,025 mm 0,0 UV-I 96 W/m 15,2 C 15,8 C 4,8 km/h (1 Bft) 100,00 %
11.09.2016 08:02 15,8 C 96 % 1016,0 hPa 0,0 l/m 2,4 km/h (1 Bft) S-SW 197 0 min 0,000 mm 0,0 UV-I 97 W/m 15,2 C 15,8 C 4,8 km/h (1 Bft) 97,87 %
11.09.2016 08:04 15,9 C 96 % 1016,1 hPa 0,0 l/m 2,8 km/h (1 Bft) S-SW 195 0 min 0,000 mm 0,0 UV-I 100 W/m 15,3 C 15,9 C 4,8 km/h (1 Bft) 100,00 %
11.09.2016 08:06 15,9 C 96 % 1016,1 hPa 0,0 l/m 5,1 km/h (1 Bft) S 184 0 min 0,000 mm 0,0 UV-I 102 W/m 15,3 C 15,9 C 6,4 km/h (2 Bft) 100,00 %
11.09.2016 08:08 16,0 C 96 % 1016,2 hPa 0,0 l/m 4,6 km/h (1 Bft) S 181 0 min 0,000 mm 0,0 UV-I 104 W/m 15,4 C 16,0 C 6,4 km/h (2 Bft) 98,11 %
11.09.2016 08:10 16,1 C 96 % 1016,2 hPa 0,0 l/m 5,4 km/h (1 Bft) S 185 0 min 0,000 mm 0,0 UV-I 109 W/m 15,5 C 16,1 C 8,0 km/h (2 Bft) 100,00 %
11.09.2016 08:12 16,1 C 96 % 1016,3 hPa 0,0 l/m 3,8 km/h (1 Bft) S 186 0 min 0,000 mm 0,0 UV-I 117 W/m 15,5 C 16,1 C 6,4 km/h (2 Bft) 100,00 %
11.09.2016 08:14 16,2 C 96 % 1016,3 hPa 0,0 l/m 4,0 km/h (1 Bft) S 185 0 min 0,000 mm 0,0 UV-I 124 W/m 15,6 C 16,2 C 4,8 km/h (1 Bft) 100,00 %
11.09.2016 08:16 16,3 C 96 % 1016,3 hPa 0,0 l/m 3,5 km/h (1 Bft) S 188 0 min 0,000 mm 0,0 UV-I 126 W/m 15,7 C 16,3 C 4,8 km/h (1 Bft) 100,00 %
11.09.2016 08:18 16,3 C 95 % 1016,4 hPa 0,0 l/m 4,2 km/h (1 Bft) S-SW 209 0 min 0,000 mm 0,0 UV-I 134 W/m 15,5 C 16,3 C 6,4 km/h (2 Bft) 98,21 %
11.09.2016 08:20 16,4 C 95 % 1016,4 hPa 0,0 l/m 4,2 km/h (1 Bft) SW 219 0 min 0,000 mm 0,0 UV-I 138 W/m 15,6 C 16,4 C 6,4 km/h (2 Bft) 100,00 %
11.09.2016 08:22 16,4 C 95 % 1016,4 hPa 0,0 l/m 3,2 km/h (1 Bft) SW 219 0 min 0,000 mm 0,0 UV-I 144 W/m 15,6 C 16,4 C 4,8 km/h (1 Bft) 100,00 %
11.09.2016 08:24 16,4 C 95 % 1016,4 hPa 0,0 l/m 3,2 km/h (1 Bft) S 174 0 min 0,000 mm 0,0 UV-I 145 W/m 15,6 C 16,4 C 6,4 km/h (2 Bft) 100,00 %
11.09.2016 08:26 16,5 C 95 % 1016,4 hPa 0,0 l/m 3,8 km/h (1 Bft) S 176 0 min 0,000 mm 0,0 UV-I 150 W/m 15,7 C 16,5 C 6,4 km/h (2 Bft) 97,37 %
11.09.2016 08:28 16,6 C 95 % 1016,4 hPa 0,0 l/m 5,0 km/h (1 Bft) S 178 0 min 0,000 mm 0,0 UV-I 156 W/m 15,8 C 16,6 C 6,4 km/h (2 Bft) 100,00 %
11.09.2016 08:30 16,6 C 95 % 1016,4 hPa 0,0 l/m 3,5 km/h (1 Bft) S-SW 194 0 min 0,000 mm 0,0 UV-I 153 W/m 15,8 C 16,6 C 6,4 km/h (2 Bft) 100,00 %
11.09.2016 08:32 16,7 C 95 % 1016,4 hPa 0,0 l/m 2,8 km/h (1 Bft) S-SW 192 0 min 0,000 mm 0,4 UV-I 153 W/m 15,9 C 16,7 C 4,8 km/h (1 Bft) 100,00 %
11.09.2016 08:34 16,8 C 95 % 1016,5 hPa 0,0 l/m 3,2 km/h (1 Bft) S-SW 193 0 min 0,000 mm 0,5 UV-I 168 W/m 16,0 C 16,8 C 4,8 km/h (1 Bft) 100,00 %
11.09.2016 08:36 16,8 C 94 % 1016,5 hPa 0,0 l/m 3,6 km/h (1 Bft) S-SW 195 0 min 0,000 mm 0,5 UV-I 177 W/m 15,8 C 16,8 C 4,8 km/h (1 Bft) 100,00 %
11.09.2016 08:38 16,9 C 94 % 1016,6 hPa 0,0 l/m 2,8 km/h (1 Bft) S-SW 196 2 min 0,000 mm 0,5 UV-I 185 W/m 15,9 C 16,9 C 4,8 km/h (1 Bft) 100,00 %
11.09.2016 08:40 16,9 C 93 % 1016,5 hPa 0,0 l/m 3,0 km/h (1 Bft) S-SW 196 2 min 0,000 mm 0,5 UV-I 195 W/m 15,8 C 16,9 C 4,8 km/h (1 Bft) 100,00 %
11.09.2016 08:42 17,0 C 93 % 1016,5 hPa 0,0 l/m 3,8 km/h (1 Bft) SW 220 2 min 0,000 mm 0,6 UV-I 202 W/m 15,9 C 17,0 C 4,8 km/h (1 Bft) 97,87 %
11.09.2016 08:44 17,1 C 93 % 1016,6 hPa 0,0 l/m 3,2 km/h (1 Bft) S 177 2 min 0,000 mm 0,6 UV-I 206 W/m 16,0 C 17,1 C 4,8 km/h (1 Bft) 100,00 %
11.09.2016 08:46 17,1 C 92 % 1016,6 hPa 0,0 l/m 3,0 km/h (1 Bft) S 177 2 min 0,000 mm 0,6 UV-I 208 W/m 15,8 C 17,1 C 6,4 km/h (2 Bft) 100,00 %
11.09.2016 08:48 17,2 C 93 % 1016,6 hPa 0,0 l/m 3,9 km/h (1 Bft) S 179 2 min 0,000 mm 0,6 UV-I 217 W/m 16,1 C 17,2 C 6,4 km/h (2 Bft) 100,00 %
11.09.2016 08:50 17,3 C 92 % 1016,6 hPa 0,0 l/m 4,1 km/h (1 Bft) S 179 2 min 0,000 mm 0,7 UV-I 227 W/m 16,0 C 17,3 C 4,8 km/h (1 Bft) 100,00 %
11.09.2016 08:52 17,3 C 92 % 1016,6 hPa 0,0 l/m 2,9 km/h (1 Bft) S 179 2 min 0,000 mm 0,7 UV-I 237 W/m 16,0 C 17,3 C 6,4 km/h (2 Bft) 100,00 %
11.09.2016 08:54 17,4 C 92 % 1016,6 hPa 0,0 l/m 0,4 km/h (0 Bft) S 179 2 min 0,000 mm 0,7 UV-I 246 W/m 16,1 C 17,4 C 1,6 km/h (1 Bft) 97,87 %
11.09.2016 08:56 17,6 C 92 % 1016,6 hPa 0,0 l/m 2,1 km/h (1 Bft) S-SW 194 2 min 0,000 mm 0,7 UV-I 251 W/m 16,3 C 17,6 C 4,8 km/h (1 Bft) 100,00 %
11.09.2016 08:58 17,7 C 91 % 1016,7 hPa 0,0 l/m 1,9 km/h (1 Bft) S-SW 194 2 min 0,000 mm 0,8 UV-I 254 W/m 16,2 C 17,7 C 4,8 km/h (1 Bft) 100,00 %
11.09.2016 09:00 17,7 C 91 % 1016,7 hPa 0,0 l/m 3,2 km/h (1 Bft) S-SW 197 2 min 0,102 mm 0,8 UV-I 259 W/m 16,2 C 17,7 C 4,8 km/h (1 Bft) 100,00 %
11.09.2016 09:02 17,8 C 91 % 1016,7 hPa 0,0 l/m 3,1 km/h (1 Bft) S-SW 197 2 min 0,000 mm 0,8 UV-I 267 W/m 16,3 C 17,8 C 4,8 km/h (1 Bft) 100,00 %
11.09.2016 09:04 17,8 C 90 % 1016,7 hPa 0,0 l/m 2,5 km/h (1 Bft) S-SW 197 2 min 0,000 mm 0,8 UV-I 269 W/m 16,1 C 17,8 C 4,8 km/h (1 Bft) 97,37 %
11.09.2016 09:06 17,8 C 91 % 1016,7 hPa 0,0 l/m 2,7 km/h (1 Bft) S-SW 205 2 min 0,000 mm 0,9 UV-I 265 W/m 16,3 C 17,8 C 4,8 km/h (1 Bft) 96,00 %
11.09.2016 09:08 17,9 C 91 % 1016,7 hPa 0,0 l/m 3,8 km/h (1 Bft) SW 220 2 min 0,000 mm 0,9 UV-I 261 W/m 16,4 C 17,9 C 6,4 km/h (2 Bft) 98,11 %
11.09.2016 09:10 17,9 C 91 % 1016,7 hPa 0,0 l/m 1,8 km/h (1 Bft) SW 220 2 min 0,000 mm 0,9 UV-I 254 W/m 16,4 C 17,9 C 4,8 km/h (1 Bft) 97,87 %
11.09.2016 09:12 17,9 C 90 % 1016,8 hPa 0,0 l/m 2,5 km/h (1 Bft) S-SW 213 2 min 0,000 mm 0,9 UV-I 250 W/m 16,2 C 17,9 C 3,2 km/h (1 Bft) 95,74 %
11.09.2016 09:14 17,9 C 90 % 1016,8 hPa 0,0 l/m 1,3 km/h (1 Bft) S-SW 213 2 min 0,000 mm 0,9 UV-I 235 W/m 16,2 C 17,9 C 3,2 km/h (1 Bft) 97,14 %
11.09.2016 09:16 18,0 C 90 % 1016,8 hPa 0,0 l/m 2,7 km/h (1 Bft) SW 215 2 min 0,000 mm 1,0 UV-I 280 W/m 16,3 C 18,0 C 4,8 km/h (1 Bft) 97,37 %
11.09.2016 09:18 18,1 C 90 % 1016,8 hPa 0,0 l/m 1,3 km/h (1 Bft) SW 215 2 min 0,000 mm 1,0 UV-I 316 W/m 16,4 C 18,1 C 3,2 km/h (1 Bft) 98,11 %
11.09.2016 09:20 18,2 C 90 % 1016,9 hPa 0,0 l/m 1,8 km/h (1 Bft) SW 215 2 min 0,000 mm 1,1 UV-I 324 W/m 16,5 C 18,2 C 4,8 km/h (1 Bft) 96,23 %
11.09.2016 09:22 18,3 C 90 % 1016,9 hPa 0,0 l/m 1,8 km/h (1 Bft) SW 215 2 min 0,000 mm 1,1 UV-I 337 W/m 16,6 C 18,3 C 4,8 km/h (1 Bft) 96,23 %
11.09.2016 09:24 18,4 C 89 % 1016,9 hPa 0,0 l/m 1,9 km/h (1 Bft) SW 215 2 min 0,000 mm 1,1 UV-I 344 W/m 16,6 C 18,4 C 3,2 km/h (1 Bft) 100,00 %
11.09.2016 09:26 18,5 C 89 % 1016,9 hPa 0,0 l/m 2,5 km/h (1 Bft) SW 215 2 min 0,000 mm 1,2 UV-I 356 W/m 16,7 C 18,5 C 4,8 km/h (1 Bft) 96,00 %
11.09.2016 09:28 18,6 C 88 % 1016,9 hPa 0,0 l/m 2,7 km/h (1 Bft) S 182 2 min 0,000 mm 1,2 UV-I 362 W/m 16,6 C 18,6 C 6,4 km/h (2 Bft) 98,00 %
11.09.2016 09:30 18,7 C 88 % 1016,9 hPa 0,0 l/m 2,6 km/h (1 Bft) S-SW 209 2 min 0,000 mm 1,3 UV-I 365 W/m 16,7 C 18,7 C 4,8 km/h (1 Bft) 97,44 %
11.09.2016 09:32 18,7 C 88 % 1016,9 hPa 0,0 l/m 3,1 km/h (1 Bft) S-SW 209 2 min 0,000 mm 1,3 UV-I 371 W/m 16,7 C 18,7 C 4,8 km/h (1 Bft) 98,08 %
11.09.2016 09:34 18,8 C 88 % 1016,9 hPa 0,0 l/m 3,6 km/h (1 Bft) S-SW 209 2 min 0,000 mm 1,3 UV-I 375 W/m 16,8 C 18,8 C 4,8 km/h (1 Bft) 97,22 %
11.09.2016 09:36 18,7 C 87 % 1016,9 hPa 0,0 l/m 1,6 km/h (1 Bft) S-SW 209 2 min 0,000 mm 1,3 UV-I 377 W/m 16,5 C 18,7 C 3,2 km/h (1 Bft) 100,00 %
11.09.2016 09:38 18,7 C 88 % 1016,8 hPa 0,0 l/m 2,0 km/h (1 Bft) S-SW 209 2 min 0,000 mm 1,4 UV-I 382 W/m 16,7 C 18,7 C 3,2 km/h (1 Bft) 100,00 %
11.09.2016 09:40 18,7 C 87 % 1016,9 hPa 0,0 l/m 2,0 km/h (1 Bft) S-SW 209 2 min 0,000 mm 1,4 UV-I 380 W/m 16,5 C 18,7 C 4,8 km/h (1 Bft) 100,00 %
11.09.2016 09:42 18,8 C 87 % 1016,9 hPa 0,0 l/m 4,1 km/h (1 Bft) S-SW 202 2 min 0,000 mm 1,4 UV-I 376 W/m 16,6 C 18,8 C 4,8 km/h (1 Bft) 97,37 %
11.09.2016 09:44 18,9 C 87 % 1016,9 hPa 0,0 l/m 2,8 km/h (1 Bft) S 186 2 min 0,000 mm 1,4 UV-I 387 W/m 16,7 C 18,9 C 4,8 km/h (1 Bft) 96,23 %
11.09.2016 09:46 19,1 C 87 % 1016,9 hPa 0,0 l/m 2,2 km/h (1 Bft) S 186 2 min 0,000 mm 1,5 UV-I 391 W/m 16,9 C 19,1 C 4,8 km/h (1 Bft) 100,00 %
11.09.2016 09:48 19,2 C 86 % 1017,0 hPa 0,0 l/m 2,8 km/h (1 Bft) S 186 2 min 0,000 mm 1,5 UV-I 388 W/m 16,8 C 19,2 C 3,2 km/h (1 Bft) 96,00 %
11.09.2016 09:50 19,4 C 87 % 1017,0 hPa 0,0 l/m 3,3 km/h (1 Bft) S 188 2 min 0,000 mm 1,5 UV-I 381 W/m 17,2 C 19,4 C 6,4 km/h (2 Bft) 100,00 %
11.09.2016 09:52 19,4 C 85 % 1017,0 hPa 0,0 l/m 3,6 km/h (1 Bft) S 176 2 min 0,000 mm 1,5 UV-I 386 W/m 16,8 C 19,4 C 4,8 km/h (1 Bft) 100,00 %
11.09.2016 09:54 19,6 C 86 % 1017,0 hPa 0,0 l/m 2,6 km/h (1 Bft) S-SW 201 2 min 0,000 mm 1,6 UV-I 399 W/m 17,2 C 19,6 C 4,8 km/h (1 Bft) 100,00 %
11.09.2016 09:56 19,7 C 85 % 1017,0 hPa 0,0 l/m 1,8 km/h (1 Bft) S-SW 201 2 min 0,000 mm 1,6 UV-I 405 W/m 17,1 C 19,7 C 3,2 km/h (1 Bft) 100,00 %
11.09.2016 09:58 19,8 C 83 % 1017,0 hPa 0,0 l/m 2,7 km/h (1 Bft) W 262 2 min 0,000 mm 1,6 UV-I 415 W/m 16,8 C 19,8 C 4,8 km/h (1 Bft) 97,14 %
11.09.2016 10:00 19,8 C 83 % 1017,0 hPa 0,0 l/m 2,5 km/h (1 Bft) W 264 2 min 0,000 mm 1,7 UV-I 415 W/m 16,8 C 19,8 C 6,4 km/h (2 Bft) 100,00 %
11.09.2016 10:02 19,8 C 84 % 1017,0 hPa 0,0 l/m 4,1 km/h (1 Bft) W 260 2 min 0,203 mm 1,7 UV-I 423 W/m 17,0 C 19,8 C 6,4 km/h (2 Bft) 100,00 %
11.09.2016 10:04 19,9 C 84 % 1017,1 hPa 0,0 l/m 3,7 km/h (1 Bft) W 267 2 min 0,000 mm 1,8 UV-I 429 W/m 17,1 C 19,9 C 6,4 km/h (2 Bft) 98,00 %
11.09.2016 10:06 20,0 C 83 % 1017,1 hPa 0,0 l/m 4,8 km/h (1 Bft) W 261 2 min 0,000 mm 1,8 UV-I 435 W/m 17,0 C 20,0 C 6,4 km/h (2 Bft) 100,00 %
11.09.2016 10:08 20,1 C 83 % 1017,1 hPa 0,0 l/m 1,9 km/h (1 Bft) W 261 2 min 0,000 mm 1,8 UV-I 444 W/m 17,1 C 20,1 C 4,8 km/h (1 Bft) 100,00 %
11.09.2016 10:10 20,2 C 83 % 1017,1 hPa 0,0 l/m 1,8 km/h (1 Bft) W 269 2 min 0,000 mm 1,9 UV-I 448 W/m 17,2 C 20,2 C 3,2 km/h (1 Bft) 100,00 %
11.09.2016 10:12 20,1 C 82 % 1017,1 hPa 0,0 l/m 1,1 km/h (1 Bft) W 268 2 min 0,000 mm 1,9 UV-I 453 W/m 16,9 C 20,1 C 3,2 km/h (1 Bft) 100,00 %
11.09.2016 10:14 20,2 C 82 % 1017,2 hPa 0,0 l/m 2,7 km/h (1 Bft) W 264 2 min 0,000 mm 2,0 UV-I 459 W/m 17,0 C 20,2 C 4,8 km/h (1 Bft) 100,00 %
11.09.2016 10:16 20,2 C 81 % 1017,1 hPa 0,0 l/m 1,8 km/h (1 Bft) S-SW 212 2 min 0,000 mm 2,0 UV-I 467 W/m 16,8 C 20,2 C 4,8 km/h (1 Bft) 100,00 %
11.09.2016 10:18 20,2 C 81 % 1017,2 hPa 0,0 l/m 1,5 km/h (1 Bft) S-SW 212 2 min 0,000 mm 2,0 UV-I 470 W/m 16,8 C 20,2 C 3,2 km/h (1 Bft) 100,00 %
11.09.2016 10:20 20,3 C 81 % 1017,1 hPa 0,0 l/m 0,2 km/h (0 Bft) S-SW 212 2 min 0,000 mm 2,1 UV-I 474 W/m 16,9 C 20,3 C 1,6 km/h (1 Bft) 100,00 %
11.09.2016 10:22 20,4 C 81 % 1017,1 hPa 0,0 l/m 1,1 km/h (1 Bft) S-SW 212 2 min 0,000 mm 2,1 UV-I 478 W/m 17,0 C 20,4 C 1,6 km/h (1 Bft) 100,00 %
11.09.2016 10:24 20,6 C 82 % 1017,2 hPa 0,0 l/m 0,5 km/h (0 Bft) S-SW 213 2 min 0,000 mm 2,1 UV-I 481 W/m 17,4 C 20,6 C 3,2 km/h (1 Bft) 100,00 %
11.09.2016 10:26 20,8 C 80 % 1017,1 hPa 0,0 l/m 2,6 km/h (1 Bft) W 268 2 min 0,000 mm 2,2 UV-I 486 W/m 17,2 C 20,8 C 4,8 km/h (1 Bft) 95,74 %
11.09.2016 10:28 20,8 C 80 % 1017,2 hPa 0,0 l/m 2,7 km/h (1 Bft) W 268 2 min 0,000 mm 2,2 UV-I 486 W/m 17,2 C 20,8 C 4,8 km/h (1 Bft) 100,00 %
11.09.2016 10:30 20,8 C 80 % 1017,2 hPa 0,0 l/m 2,7 km/h (1 Bft) W 273 2 min 0,000 mm 2,2 UV-I 488 W/m 17,2 C 20,8 C 4,8 km/h (1 Bft) 100,00 %
11.09.2016 10:32 20,9 C 80 % 1017,2 hPa 0,0 l/m 3,3 km/h (1 Bft) W 263 2 min 0,000 mm 2,2 UV-I 490 W/m 17,3 C 20,9 C 4,8 km/h (1 Bft) 100,00 %
11.09.2016 10:34 20,8 C 80 % 1017,2 hPa 0,0 l/m 2,9 km/h (1 Bft) W-SW 240 2 min 0,000 mm 2,3 UV-I 494 W/m 17,2 C 20,8 C 6,4 km/h (2 Bft) 95,12 %
11.09.2016 10:36 20,9 C 81 % 1017,2 hPa 0,0 l/m 3,8 km/h (1 Bft) W 277 2 min 0,000 mm 2,3 UV-I 503 W/m 17,5 C 20,9 C 6,4 km/h (2 Bft) 100,00 %
11.09.2016 10:38 20,9 C 80 % 1017,2 hPa 0,0 l/m 3,0 km/h (1 Bft) W 277 2 min 0,000 mm 2,4 UV-I 504 W/m 17,3 C 20,9 C 4,8 km/h (1 Bft) 100,00 %
11.09.2016 10:40 20,9 C 80 % 1017,2 hPa 0,0 l/m 2,0 km/h (1 Bft) W 277 2 min 0,000 mm 2,4 UV-I 510 W/m 17,3 C 20,9 C 3,2 km/h (1 Bft) 100,00 %
11.09.2016 10:42 21,0 C 81 % 1017,2 hPa 0,0 l/m 2,7 km/h (1 Bft) S-SW 198 2 min 0,000 mm 2,4 UV-I 517 W/m 17,6 C 21,0 C 4,8 km/h (1 Bft) 97,56 %
11.09.2016 10:44 21,1 C 80 % 1017,2 hPa 0,0 l/m 3,1 km/h (1 Bft) S 183 2 min 0,000 mm 2,5 UV-I 519 W/m 17,5 C 21,1 C 4,8 km/h (1 Bft) 100,00 %
11.09.2016 10:46 21,1 C 79 % 1017,2 hPa 0,0 l/m 1,3 km/h (1 Bft) W 278 2 min 0,000 mm 2,5 UV-I 521 W/m 17,3 C 21,1 C 3,2 km/h (1 Bft) 100,00 %
11.09.2016 10:48 21,2 C 79 % 1017,2 hPa 0,0 l/m 1,6 km/h (1 Bft) W 279 2 min 0,000 mm 2,5 UV-I 520 W/m 17,4 C 21,2 C 3,2 km/h (1 Bft) 100,00 %
11.09.2016 10:50 21,3 C 79 % 1017,2 hPa 0,0 l/m 2,3 km/h (1 Bft) W 280 2 min 0,000 mm 2,5 UV-I 529 W/m 17,5 C 21,3 C 4,8 km/h (1 Bft) 100,00 %
11.09.2016 10:52 21,5 C 79 % 1017,2 hPa 0,0 l/m 1,8 km/h (1 Bft) W-NW 282 2 min 0,000 mm 2,6 UV-I 535 W/m 17,7 C 21,5 C 4,8 km/h (1 Bft) 100,00 %
11.09.2016 10:54 21,6 C 77 % 1017,2 hPa 0,0 l/m 0,8 km/h (0 Bft) W-NW 282 2 min 0,000 mm 2,6 UV-I 532 W/m 17,4 C 21,6 C 3,2 km/h (1 Bft) 100,00 %
11.09.2016 10:56 21,6 C 79 % 1017,1 hPa 0,0 l/m 2,8 km/h (1 Bft) W 271 2 min 0,000 mm 2,6 UV-I 538 W/m 17,8 C 21,6 C 3,2 km/h (1 Bft) 100,00 %
11.09.2016 10:58 21,7 C 77 % 1017,1 hPa 0,0 l/m 1,2 km/h (1 Bft) W 271 2 min 0,000 mm 2,7 UV-I 531 W/m 17,5 C 21,7 C 3,2 km/h (1 Bft) 98,00 %
11.09.2016 11:00 21,7 C 77 % 1017,2 hPa 0,0 l/m 1,5 km/h (1 Bft) S-SW 192 2 min 0,280 mm 2,7 UV-I 532 W/m 17,5 C 21,7 C 3,2 km/h (1 Bft) 96,00 %
11.09.2016 11:02 21,8 C 78 % 1017,2 hPa 0,0 l/m 0,8 km/h (0 Bft) S-SW 192 2 min 0,000 mm 2,7 UV-I 529 W/m 17,8 C 21,8 C 3,2 km/h (1 Bft) 98,00 %
11.09.2016 11:04 21,8 C 76 % 1017,2 hPa 0,0 l/m 2,7 km/h (1 Bft) W 281 2 min 0,000 mm 2,7 UV-I 537 W/m 17,4 C 21,8 C 6,4 km/h (2 Bft) 93,62 %
11.09.2016 11:06 21,8 C 76 % 1017,2 hPa 0,0 l/m 1,1 km/h (1 Bft) W 281 2 min 0,000 mm 2,8 UV-I 544 W/m 17,4 C 21,8 C 3,2 km/h (1 Bft) 100,00 %
11.09.2016 11:08 21,7 C 75 % 1017,2 hPa 0,0 l/m 0,3 km/h (0 Bft) W 281 2 min 0,000 mm 2,8 UV-I 553 W/m 17,1 C 21,7 C 1,6 km/h (1 Bft) 94,00 %
11.09.2016 11:10 21,9 C 76 % 1017,2 hPa 0,0 l/m 2,7 km/h (1 Bft) N 355 2 min 0,000 mm 2,9 UV-I 564 W/m 17,5 C 21,9 C 4,8 km/h (1 Bft) 98,11 %
11.09.2016 11:12 22,0 C 75 % 1017,3 hPa 0,0 l/m 3,1 km/h (1 Bft) O-SO 119 2 min 0,000 mm 2,9 UV-I 573 W/m 17,4 C 22,0 C 6,4 km/h (2 Bft) 97,87 %
11.09.2016 11:14 22,0 C 75 % 1017,2 hPa 0,0 l/m 2,1 km/h (1 Bft) O-SO 119 2 min 0,000 mm 3,0 UV-I 571 W/m 17,4 C 22,0 C 3,2 km/h (1 Bft) 97,56 %
11.09.2016 11:16 22,2 C 75 % 1017,3 hPa 0,0 l/m 1,8 km/h (1 Bft) O 98 2 min 0,000 mm 3,0 UV-I 578 W/m 17,5 C 22,2 C 3,2 km/h (1 Bft) 95,12 %
11.09.2016 11:18 22,3 C 76 % 1017,2 hPa 0,0 l/m 1,2 km/h (1 Bft) S-SO 152 2 min 0,000 mm 3,0 UV-I 581 W/m 17,9 C 22,3 C 3,2 km/h (1 Bft) 98,00 %
11.09.2016 11:20 22,4 C 75 % 1017,2 hPa 0,0 l/m 2,4 km/h (1 Bft) S-SO 159 2 min 0,000 mm 3,0 UV-I 578 W/m 17,7 C 22,4 C 4,8 km/h (1 Bft) 98,11 %
11.09.2016 11:22 22,4 C 75 % 1017,2 hPa 0,0 l/m 3,3 km/h (1 Bft) S-SW 207 2 min 0,000 mm 3,1 UV-I 583 W/m 17,7 C 22,4 C 4,8 km/h (1 Bft) 96,00 %
11.09.2016 11:24 22,5 C 74 % 1017,3 hPa 0,0 l/m 2,1 km/h (1 Bft) W-SW 244 2 min 0,000 mm 3,1 UV-I 589 W/m 17,6 C 22,5 C 3,2 km/h (1 Bft) 95,74 %
11.09.2016 11:26 22,6 C 74 % 1017,1 hPa 0,0 l/m 0,1 km/h (0 Bft) W-SW 244 2 min 0,000 mm 3,1 UV-I 591 W/m 17,7 C 22,6 C 1,6 km/h (1 Bft) 97,37 %
11.09.2016 11:28 22,6 C 74 % 1017,1 hPa 0,0 l/m 1,0 km/h (0 Bft) W-SW 244 2 min 0,000 mm 3,2 UV-I 591 W/m 17,7 C 22,6 C 3,2 km/h (1 Bft) 98,11 %
11.09.2016 11:30 22,8 C 74 % 1017,2 hPa 0,0 l/m 2,5 km/h (1 Bft) NW 308 2 min 0,000 mm 3,2 UV-I 598 W/m 17,9 C 22,8 C 6,4 km/h (2 Bft) 97,87 %
11.09.2016 11:32 22,9 C 72 % 1017,1 hPa 0,0 l/m 2,9 km/h (1 Bft) W-NW 299 2 min 0,000 mm 3,2 UV-I 590 W/m 17,6 C 22,9 C 4,8 km/h (1 Bft) 100,00 %
11.09.2016 11:34 22,9 C 74 % 1017,1 hPa 0,0 l/m 1,3 km/h (1 Bft) NW 304 2 min 0,000 mm 3,2 UV-I 596 W/m 18,0 C 22,9 C 3,2 km/h (1 Bft) 100,00 %
11.09.2016 11:36 22,9 C 71 % 1017,1 hPa 0,0 l/m 1,2 km/h (1 Bft) NW 311 2 min 0,000 mm 3,2 UV-I 592 W/m 17,4 C 22,9 C 4,8 km/h (1 Bft) 100,00 %
11.09.2016 11:38 22,9 C 72 % 1017,2 hPa 0,0 l/m 3,8 km/h (1 Bft) NO 40 2 min 0,000 mm 3,3 UV-I 595 W/m 17,6 C 22,9 C 6,4 km/h (2 Bft) 100,00 %
11.09.2016 11:40 23,2 C 72 % 1017,1 hPa 0,0 l/m 2,8 km/h (1 Bft) N-NW 332 2 min 0,000 mm 3,3 UV-I 597 W/m 17,9 C 23,2 C 6,4 km/h (2 Bft) 100,00 %
11.09.2016 11:42 23,2 C 71 % 1017,2 hPa 0,0 l/m 2,4 km/h (1 Bft) N-NW 329 2 min 0,000 mm 3,3 UV-I 604 W/m 17,6 C 23,2 C 4,8 km/h (1 Bft) 100,00 %
11.09.2016 11:44 23,2 C 73 % 1017,1 hPa 0,0 l/m 1,8 km/h (1 Bft) W-NW 292 2 min 0,000 mm 3,4 UV-I 608 W/m 18,1 C 23,2 C 4,8 km/h (1 Bft) 100,00 %
11.09.2016 11:46 23,2 C 71 % 1017,2 hPa 0,0 l/m 2,5 km/h (1 Bft) NW 325 2 min 0,000 mm 3,4 UV-I 612 W/m 17,6 C 23,2 C 8,0 km/h (2 Bft) 95,74 %
11.09.2016 11:48 23,2 C 71 % 1017,2 hPa 0,0 l/m 1,8 km/h (1 Bft) NW 318 2 min 0,000 mm 3,4 UV-I 614 W/m 17,6 C 23,2 C 3,2 km/h (1 Bft) 100,00 %
11.09.2016 11:50 23,3 C 73 % 1017,1 hPa 0,0 l/m 1,2 km/h (1 Bft) N-NO 15 2 min 0,000 mm 3,4 UV-I 620 W/m 18,2 C 23,3 C 3,2 km/h (1 Bft) 98,00 %
11.09.2016 11:52 23,3 C 71 % 1017,1 hPa 0,0 l/m 1,5 km/h (1 Bft) NW 323 2 min 0,000 mm 3,5 UV-I 621 W/m 17,7 C 23,3 C 4,8 km/h (1 Bft) 100,00 %
11.09.2016 11:54 23,3 C 71 % 1017,2 hPa 0,0 l/m 3,5 km/h (1 Bft) NW 307 2 min 0,000 mm 3,5 UV-I 624 W/m 17,7 C 23,3 C 4,8 km/h (1 Bft) 100,00 %
11.09.2016 11:56 23,3 C 70 % 1017,1 hPa 0,0 l/m 2,6 km/h (1 Bft) NW 315 2 min 0,000 mm 3,5 UV-I 627 W/m 17,5 C 23,3 C 4,8 km/h (1 Bft) 97,87 %
11.09.2016 11:58 23,3 C 74 % 1017,1 hPa 0,0 l/m 1,6 km/h (1 Bft) N-NO 29 2 min 0,000 mm 3,5 UV-I 632 W/m 18,4 C 23,3 C 3,2 km/h (1 Bft) 100,00 %
11.09.2016 12:00 23,7 C 69 % 1017,1 hPa 0,0 l/m 0,8 km/h (0 Bft) N 360 2 min 0,355 mm 3,6 UV-I 634 W/m 17,7 C 23,7 C 4,8 km/h (1 Bft) 97,37 %
11.09.2016 12:02 23,7 C 70 % 1017,2 hPa 0,0 l/m 2,8 km/h (1 Bft) N-NW 337 2 min 0,000 mm 3,6 UV-I 633 W/m 17,9 C 23,7 C 6,4 km/h (2 Bft) 100,00 %
11.09.2016 12:04 23,5 C 69 % 1017,2 hPa 0,0 l/m 3,1 km/h (1 Bft) N-NW 342 2 min 0,000 mm 3,6 UV-I 633 W/m 17,5 C 23,5 C 4,8 km/h (1 Bft) 97,87 %
11.09.2016 12:06 23,4 C 69 % 1017,1 hPa 0,0 l/m 1,5 km/h (1 Bft) N-NW 344 2 min 0,000 mm 3,6 UV-I 636 W/m 17,4 C 23,4 C 3,2 km/h (1 Bft) 100,00 %
11.09.2016 12:08 23,3 C 69 % 1017,1 hPa 0,0 l/m 2,3 km/h (1 Bft) N 11 2 min 0,000 mm 3,6 UV-I 636 W/m 17,3 C 23,3 C 4,8 km/h (1 Bft) 100,00 %
11.09.2016 12:10 23,5 C 71 % 1017,1 hPa 0,0 l/m 4,2 km/h (1 Bft) O-SO 103 2 min 0,000 mm 3,6 UV-I 637 W/m 17,9 C 23,5 C 6,4 km/h (2 Bft) 100,00 %
11.09.2016 12:12 23,8 C 71 % 1017,1 hPa 0,0 l/m 3,1 km/h (1 Bft) NO 40 2 min 0,000 mm 3,6 UV-I 642 W/m 18,2 C 23,8 C 8,0 km/h (2 Bft) 100,00 %
11.09.2016 12:14 24,1 C 71 % 1017,1 hPa 0,0 l/m 5,2 km/h (1 Bft) O-NO 57 2 min 0,000 mm 3,7 UV-I 644 W/m 18,5 C 24,1 C 6,4 km/h (2 Bft) 100,00 %
11.09.2016 12:16 24,2 C 68 % 1017,1 hPa 0,0 l/m 5,2 km/h (1 Bft) N-NO 33 2 min 0,000 mm 3,7 UV-I 647 W/m 17,9 C 24,2 C 8,0 km/h (2 Bft) 100,00 %
11.09.2016 12:18 24,3 C 69 % 1017,1 hPa 0,0 l/m 6,4 km/h (2 Bft) N-NO 13 2 min 0,000 mm 3,7 UV-I 651 W/m 18,2 C 24,3 C 12,9 km/h (3 Bft) 100,00 %
11.09.2016 12:20 24,6 C 68 % 1017,1 hPa 0,0 l/m 4,7 km/h (1 Bft) N 360 2 min 0,000 mm 3,8 UV-I 655 W/m 18,3 C 24,6 C 9,7 km/h (2 Bft) 100,00 %
11.09.2016 12:22 24,6 C 67 % 1017,1 hPa 0,0 l/m 2,6 km/h (1 Bft) N 351 2 min 0,000 mm 3,8 UV-I 656 W/m 18,1 C 24,6 C 6,4 km/h (2 Bft) 100,00 %
11.09.2016 12:24 24,4 C 67 % 1017,1 hPa 0,0 l/m 3,8 km/h (1 Bft) NW 319 2 min 0,000 mm 3,8 UV-I 656 W/m 17,9 C 24,4 C 8,0 km/h (2 Bft) 100,00 %
11.09.2016 12:26 24,4 C 68 % 1017,1 hPa 0,0 l/m 1,5 km/h (1 Bft) N-NW 327 2 min 0,000 mm 3,8 UV-I 651 W/m 18,1 C 24,4 C 4,8 km/h (1 Bft) 100,00 %
11.09.2016 12:28 24,4 C 67 % 1017,1 hPa 0,0 l/m 2,1 km/h (1 Bft) N-NW 346 2 min 0,000 mm 3,8 UV-I 652 W/m 17,9 C 24,4 C 4,8 km/h (1 Bft) 100,00 %
11.09.2016 12:30 24,4 C 67 % 1017,0 hPa 0,0 l/m 4,0 km/h (1 Bft) N-NW 344 2 min 0,000 mm 3,8 UV-I 655 W/m 17,9 C 24,4 C 11,3 km/h (2 Bft) 98,00 %
11.09.2016 12:32 24,4 C 68 % 1017,0 hPa 0,0 l/m 3,1 km/h (1 Bft) W-NW 300 2 min 0,000 mm 3,8 UV-I 658 W/m 18,1 C 24,4 C 6,4 km/h (2 Bft) 100,00 %
11.09.2016 12:34 24,3 C 67 % 1017,0 hPa 0,0 l/m 2,9 km/h (1 Bft) N-NW 331 2 min 0,000 mm 3,8 UV-I 658 W/m 17,8 C 24,3 C 6,4 km/h (2 Bft) 100,00 %
11.09.2016 12:36 24,3 C 68 % 1017,0 hPa 0,0 l/m 1,4 km/h (1 Bft) N-NW 346 2 min 0,000 mm 3,8 UV-I 659 W/m 18,0 C 24,3 C 3,2 km/h (1 Bft) 100,00 %
11.09.2016 12:38 24,6 C 68 % 1017,0 hPa 0,0 l/m 0,8 km/h (0 Bft) N-NW 334 2 min 0,000 mm 3,8 UV-I 657 W/m 18,3 C 24,6 C 1,6 km/h (1 Bft) 100,00 %
11.09.2016 12:40 24,6 C 66 % 1017,0 hPa 0,0 l/m 1,7 km/h (1 Bft) NW 307 2 min 0,000 mm 3,8 UV-I 659 W/m 17,8 C 24,6 C 3,2 km/h (1 Bft) 100,00 %
11.09.2016 12:42 24,3 C 66 % 1016,9 hPa 0,0 l/m 2,0 km/h (1 Bft) NW 304 2 min 0,000 mm 3,8 UV-I 656 W/m 17,5 C 24,3 C 4,8 km/h (1 Bft) 97,87 %
11.09.2016 12:44 24,3 C 66 % 1017,0 hPa 0,0 l/m 3,4 km/h (1 Bft) W-SW 240 2 min 0,000 mm 3,8 UV-I 657 W/m 17,5 C 24,3 C 8,0 km/h (2 Bft) 100,00 %
11.09.2016 12:46 24,3 C 67 % 1017,0 hPa 0,0 l/m 3,3 km/h (1 Bft) W-SW 256 2 min 0,000 mm 3,9 UV-I 663 W/m 17,8 C 24,3 C 4,8 km/h (1 Bft) 100,00 %
11.09.2016 12:48 24,5 C 67 % 1017,0 hPa 0,0 l/m 4,3 km/h (1 Bft) W-SW 240 2 min 0,000 mm 3,9 UV-I 662 W/m 18,0 C 24,5 C 8,0 km/h (2 Bft) 100,00 %
11.09.2016 12:50 24,4 C 66 % 1017,0 hPa 0,0 l/m 1,9 km/h (1 Bft) W-SW 241 2 min 0,000 mm 3,9 UV-I 661 W/m 17,6 C 24,4 C 4,8 km/h (1 Bft) 100,00 %
11.09.2016 12:52 24,4 C 67 % 1016,9 hPa 0,0 l/m 0,7 km/h (0 Bft) W-SW 241 2 min 0,000 mm 3,9 UV-I 661 W/m 17,9 C 24,4 C 3,2 km/h (1 Bft) 100,00 %
11.09.2016 12:54 24,4 C 66 % 1017,0 hPa 0,0 l/m 1,0 km/h (0 Bft) W-SW 249 2 min 0,000 mm 3,9 UV-I 659 W/m 17,6 C 24,4 C 3,2 km/h (1 Bft) 100,00 %
11.09.2016 12:56 24,7 C 69 % 1016,9 hPa 0,0 l/m 2,5 km/h (1 Bft) N-NW 334 2 min 0,000 mm 3,8 UV-I 661 W/m 18,6 C 24,7 C 4,8 km/h (1 Bft) 98,21 %
11.09.2016 12:58 24,8 C 68 % 1016,9 hPa 0,0 l/m 2,3 km/h (1 Bft) N 355 2 min 0,000 mm 3,9 UV-I 661 W/m 18,5 C 24,8 C 4,8 km/h (1 Bft) 96,00 %
11.09.2016 13:00 24,8 C 66 % 1016,9 hPa 0,0 l/m 1,5 km/h (1 Bft) N 355 2 min 0,000 mm 3,8 UV-I 661 W/m 18,0 C 24,8 C 3,2 km/h (1 Bft) 97,56 %
11.09.2016 13:02 25,0 C 66 % 1016,9 hPa 0,0 l/m 2,5 km/h (1 Bft) NW 322 2 min 0,407 mm 3,8 UV-I 660 W/m 18,2 C 25,0 C 4,8 km/h (1 Bft) 97,56 %
11.09.2016 13:04 24,9 C 67 % 1016,9 hPa 0,0 l/m 0,5 km/h (0 Bft) NW 322 2 min 0,000 mm 3,8 UV-I 660 W/m 18,3 C 24,9 C 1,6 km/h (1 Bft) 97,87 %
11.09.2016 13:06 24,8 C 65 % 1016,9 hPa 0,0 l/m 1,9 km/h (1 Bft) O-NO 60 2 min 0,000 mm 3,8 UV-I 660 W/m 17,8 C 24,8 C 3,2 km/h (1 Bft) 98,11 %
11.09.2016 13:08 24,6 C 66 % 1016,9 hPa 0,0 l/m 3,3 km/h (1 Bft) O 86 2 min 0,000 mm 3,8 UV-I 660 W/m 17,8 C 24,6 C 4,8 km/h (1 Bft) 96,00 %
11.09.2016 13:10 24,7 C 66 % 1016,9 hPa 0,0 l/m 4,5 km/h (1 Bft) SO 144 2 min 0,000 mm 3,8 UV-I 662 W/m 17,9 C 24,7 C 6,4 km/h (2 Bft) 97,87 %
11.09.2016 13:12 24,7 C 66 % 1016,9 hPa 0,0 l/m 2,0 km/h (1 Bft) SO 130 2 min 0,000 mm 3,8 UV-I 665 W/m 17,9 C 24,7 C 3,2 km/h (1 Bft) 97,37 %
11.09.2016 13:14 24,7 C 68 % 1016,9 hPa 0,0 l/m 3,3 km/h (1 Bft) O 92 2 min 0,000 mm 3,9 UV-I 666 W/m 18,4 C 24,7 C 4,8 km/h (1 Bft) 98,11 %
11.09.2016 13:16 24,9 C 67 % 1016,9 hPa 0,0 l/m 1,7 km/h (1 Bft) NO 46 2 min 0,000 mm 3,8 UV-I 664 W/m 18,3 C 24,9 C 3,2 km/h (1 Bft) 97,87 %
11.09.2016 13:18 25,2 C 65 % 1016,9 hPa 0,0 l/m 1,4 km/h (1 Bft) NO 36 2 min 0,000 mm 3,8 UV-I 660 W/m 18,1 C 25,2 C 3,2 km/h (1 Bft) 97,56 %
11.09.2016 13:20 25,2 C 66 % 1016,9 hPa 0,0 l/m 1,5 km/h (1 Bft) NO 53 2 min 0,000 mm 3,8 UV-I 654 W/m 18,4 C 25,2 C 3,2 km/h (1 Bft) 97,87 %
11.09.2016 13:22 25,1 C 66 % 1016,9 hPa 0,0 l/m 2,5 km/h (1 Bft) NO 46 2 min 0,000 mm 3,8 UV-I 653 W/m 18,3 C 25,1 C 4,8 km/h (1 Bft) 91,49 %
11.09.2016 13:24 25,2 C 66 % 1016,8 hPa 0,0 l/m 1,8 km/h (1 Bft) SO 142 2 min 0,000 mm 3,7 UV-I 644 W/m 18,4 C 25,2 C 4,8 km/h (1 Bft) 95,74 %
11.09.2016 13:26 25,3 C 65 % 1016,7 hPa 0,0 l/m 3,7 km/h (1 Bft) W-SW 238 2 min 0,000 mm 3,7 UV-I 629 W/m 18,2 C 25,3 C 6,4 km/h (2 Bft) 96,23 %
11.09.2016 13:28 25,3 C 66 % 1016,8 hPa 0,0 l/m 1,3 km/h (1 Bft) NW 321 2 min 0,000 mm 3,7 UV-I 638 W/m 18,5 C 25,3 C 3,2 km/h (1 Bft) 100,00 %
11.09.2016 13:30 25,3 C 67 % 1016,8 hPa 0,0 l/m 1,9 km/h (1 Bft) W-SW 254 2 min 0,000 mm 3,7 UV-I 641 W/m 18,7 C 25,3 C 3,2 km/h (1 Bft) 100,00 %
11.09.2016 13:32 25,3 C 64 % 1016,7 hPa 0,0 l/m 1,2 km/h (1 Bft) W 259 2 min 0,000 mm 3,7 UV-I 637 W/m 18,0 C 25,3 C 4,8 km/h (1 Bft) 100,00 %
11.09.2016 13:34 25,4 C 64 % 1016,8 hPa 0,0 l/m 3,9 km/h (1 Bft) NW 304 2 min 0,000 mm 3,7 UV-I 646 W/m 18,1 C 25,4 C 6,4 km/h (2 Bft) 97,87 %
11.09.2016 13:36 25,4 C 67 % 1016,8 hPa 0,0 l/m 3,1 km/h (1 Bft) NW 304 2 min 0,000 mm 3,7 UV-I 651 W/m 18,8 C 25,4 C 4,8 km/h (1 Bft) 95,74 %
11.09.2016 13:38 25,4 C 64 % 1016,7 hPa 0,0 l/m 2,6 km/h (1 Bft) W-NW 292 2 min 0,000 mm 3,7 UV-I 650 W/m 18,1 C 25,4 C 4,8 km/h (1 Bft) 100,00 %
11.09.2016 13:40 25,2 C 64 % 1016,7 hPa 0,0 l/m 0,7 km/h (0 Bft) W-NW 292 2 min 0,000 mm 3,7 UV-I 645 W/m 17,9 C 25,2 C 4,8 km/h (1 Bft) 100,00 %
11.09.2016 13:42 25,2 C 66 % 1016,7 hPa 0,0 l/m 1,8 km/h (1 Bft) N-NW 345 2 min 0,000 mm 3,7 UV-I 649 W/m 18,4 C 25,2 C 3,2 km/h (1 Bft) 97,56 %
11.09.2016 13:44 25,5 C 67 % 1016,7 hPa 0,0 l/m 1,6 km/h (1 Bft) N 11 2 min 0,000 mm 3,7 UV-I 646 W/m 18,9 C 25,5 C 3,2 km/h (1 Bft) 100,00 %
11.09.2016 13:46 25,7 C 66 % 1016,7 hPa 0,0 l/m 1,9 km/h (1 Bft) NW 323 2 min 0,000 mm 3,6 UV-I 642 W/m 18,9 C 25,7 C 3,2 km/h (1 Bft) 100,00 %
11.09.2016 13:48 25,7 C 63 % 1016,7 hPa 0,0 l/m 2,5 km/h (1 Bft) N-NW 331 2 min 0,000 mm 3,6 UV-I 641 W/m 18,1 C 25,7 C 4,8 km/h (1 Bft) 98,11 %
11.09.2016 13:50 25,6 C 64 % 1016,6 hPa 0,0 l/m 2,7 km/h (1 Bft) N-NW 347 2 min 0,000 mm 3,6 UV-I 644 W/m 18,3 C 25,6 C 4,8 km/h (1 Bft) 100,00 %
11.09.2016 13:52 25,7 C 63 % 1016,6 hPa 0,0 l/m 3,2 km/h (1 Bft) W-NW 302 2 min 0,000 mm 3,6 UV-I 645 W/m 18,1 C 25,7 C 6,4 km/h (2 Bft) 100,00 %
11.09.2016 13:54 25,6 C 63 % 1016,6 hPa 0,0 l/m 3,4 km/h (1 Bft) W 259 2 min 0,000 mm 3,6 UV-I 648 W/m 18,0 C 25,6 C 4,8 km/h (1 Bft) 100,00 %
11.09.2016 13:56 25,6 C 64 % 1016,6 hPa 0,0 l/m 3,2 km/h (1 Bft) W 277 2 min 0,000 mm 3,6 UV-I 648 W/m 18,3 C 25,6 C 4,8 km/h (1 Bft) 100,00 %
11.09.2016 13:58 25,5 C 64 % 1016,6 hPa 0,0 l/m 2,2 km/h (1 Bft) SW 225 2 min 0,000 mm 3,6 UV-I 649 W/m 18,2 C 25,5 C 4,8 km/h (1 Bft) 100,00 %
11.09.2016 14:00 25,6 C 64 % 1016,5 hPa 0,0 l/m 1,7 km/h (1 Bft) SW 225 2 min 0,431 mm 3,6 UV-I 645 W/m 18,3 C 25,6 C 3,2 km/h (1 Bft) 100,00 %
11.09.2016 14:02 25,8 C 63 % 1016,5 hPa 0,0 l/m 1,1 km/h (1 Bft) SW 225 2 min 0,000 mm 3,5 UV-I 642 W/m 18,2 C 25,8 C 3,2 km/h (1 Bft) 97,87 %
11.09.2016 14:04 25,9 C 64 % 1016,5 hPa 0,0 l/m 2,3 km/h (1 Bft) N-NW 333 2 min 0,000 mm 3,5 UV-I 643 W/m 18,6 C 25,9 C 4,8 km/h (1 Bft) 100,00 %
11.09.2016 14:06 26,0 C 63 % 1016,5 hPa 0,0 l/m 1,9 km/h (1 Bft) N-NW 336 2 min 0,000 mm 3,5 UV-I 641 W/m 18,4 C 26,0 C 6,4 km/h (2 Bft) 100,00 %
11.09.2016 14:08 25,9 C 63 % 1016,5 hPa 0,0 l/m 2,8 km/h (1 Bft) NW 310 2 min 0,000 mm 3,5 UV-I 638 W/m 18,3 C 25,9 C 4,8 km/h (1 Bft) 97,87 %
11.09.2016 14:10 25,9 C 63 % 1016,5 hPa 0,0 l/m 2,1 km/h (1 Bft) N 5 2 min 0,000 mm 3,5 UV-I 635 W/m 18,3 C 25,9 C 4,8 km/h (1 Bft) 100,00 %
11.09.2016 14:12 26,2 C 65 % 1016,4 hPa 0,0 l/m 4,7 km/h (1 Bft) N-NO 31 2 min 0,000 mm 3,4 UV-I 629 W/m 19,1 C 26,2 C 8,0 km/h (2 Bft) 100,00 %
11.09.2016 14:14 26,3 C 66 % 1016,4 hPa 0,0 l/m 1,8 km/h (1 Bft) N-NO 30 2 min 0,000 mm 3,4 UV-I 630 W/m 19,4 C 26,3 C 3,2 km/h (1 Bft) 100,00 %
11.09.2016 14:16 26,4 C 65 % 1016,5 hPa 0,0 l/m 4,1 km/h (1 Bft) N-NO 19 2 min 0,000 mm 3,4 UV-I 628 W/m 19,3 C 26,4 C 6,4 km/h (2 Bft) 98,00 %
11.09.2016 14:18 26,6 C 64 % 1016,4 hPa 0,0 l/m 2,8 km/h (1 Bft) NO 45 2 min 0,000 mm 3,3 UV-I 623 W/m 19,2 C 26,6 C 6,4 km/h (2 Bft) 100,00 %
11.09.2016 14:20 26,5 C 63 % 1016,4 hPa 0,0 l/m 5,6 km/h (1 Bft) N-NO 13 2 min 0,000 mm 3,3 UV-I 621 W/m 18,9 C 26,5 C 12,9 km/h (3 Bft) 97,56 %
11.09.2016 14:22 26,4 C 62 % 1016,3 hPa 0,0 l/m 3,8 km/h (1 Bft) N-NO 24 2 min 0,000 mm 3,3 UV-I 617 W/m 18,5 C 26,4 C 6,4 km/h (2 Bft) 98,00 %
11.09.2016 14:24 26,2 C 64 % 1016,4 hPa 0,0 l/m 2,5 km/h (1 Bft) N-NO 28 2 min 0,000 mm 3,2 UV-I 611 W/m 18,8 C 26,2 C 6,4 km/h (2 Bft) 100,00 %
11.09.2016 14:26 26,3 C 64 % 1016,4 hPa 0,0 l/m 2,1 km/h (1 Bft) N-NO 23 2 min 0,000 mm 3,2 UV-I 605 W/m 18,9 C 26,3 C 4,8 km/h (1 Bft) 100,00 %
11.09.2016 14:28 26,4 C 65 % 1016,4 hPa 0,0 l/m 1,7 km/h (1 Bft) N 10 2 min 0,000 mm 3,2 UV-I 604 W/m 19,3 C 26,4 C 6,4 km/h (2 Bft) 100,00 %
11.09.2016 14:30 26,3 C 62 % 1016,4 hPa 0,0 l/m 3,2 km/h (1 Bft) W-NW 286 2 min 0,000 mm 3,2 UV-I 609 W/m 18,4 C 26,3 C 6,4 km/h (2 Bft) 100,00 %
11.09.2016 14:32 26,3 C 65 % 1016,3 hPa 0,0 l/m 1,1 km/h (1 Bft) W-NW 290 2 min 0,000 mm 3,2 UV-I 610 W/m 19,2 C 26,3 C 3,2 km/h (1 Bft) 100,00 %
11.09.2016 14:34 26,4 C 63 % 1016,3 hPa 0,0 l/m 1,5 km/h (1 Bft) N-NO 19 2 min 0,000 mm 3,1 UV-I 608 W/m 18,8 C 26,4 C 4,8 km/h (1 Bft) 92,11 %
11.09.2016 14:36 26,6 C 64 % 1016,3 hPa 0,0 l/m 1,5 km/h (1 Bft) N 350 2 min 0,000 mm 3,1 UV-I 608 W/m 19,2 C 26,6 C 3,2 km/h (1 Bft) 100,00 %
11.09.2016 14:38 26,5 C 62 % 1016,3 hPa 0,0 l/m 1,1 km/h (1 Bft) N 350 2 min 0,000 mm 3,1 UV-I 605 W/m 18,6 C 26,5 C 3,2 km/h (1 Bft) 100,00 %
11.09.2016 14:40 26,5 C 63 % 1016,3 hPa 0,0 l/m 1,1 km/h (1 Bft) N-NO 32 2 min 0,000 mm 3,1 UV-I 601 W/m 18,9 C 26,5 C 3,2 km/h (1 Bft) 100,00 %
11.09.2016 14:42 26,5 C 64 % 1016,3 hPa 0,0 l/m 0,8 km/h (0 Bft) O-SO 123 2 min 0,000 mm 3,0 UV-I 597 W/m 19,1 C 26,5 C 3,2 km/h (1 Bft) 100,00 %
11.09.2016 14:44 26,6 C 62 % 1016,2 hPa 0,0 l/m 0,2 km/h (0 Bft) O-SO 123 2 min 0,000 mm 3,0 UV-I 591 W/m 18,7 C 26,6 C 1,6 km/h (1 Bft) 100,00 %
11.09.2016 14:46 26,5 C 63 % 1016,2 hPa 0,0 l/m 1,5 km/h (1 Bft) S-SO 150 2 min 0,000 mm 3,0 UV-I 584 W/m 18,9 C 26,5 C 3,2 km/h (1 Bft) 100,00 %
11.09.2016 14:48 26,4 C 63 % 1016,2 hPa 0,0 l/m 3,7 km/h (1 Bft) S 170 2 min 0,000 mm 2,9 UV-I 583 W/m 18,8 C 26,4 C 8,0 km/h (2 Bft) 98,00 %
11.09.2016 14:50 26,4 C 63 % 1016,2 hPa 0,0 l/m 4,5 km/h (1 Bft) S-SW 202 2 min 0,000 mm 2,9 UV-I 589 W/m 18,8 C 26,4 C 9,7 km/h (2 Bft) 98,00 %
11.09.2016 14:52 26,3 C 64 % 1016,2 hPa 0,0 l/m 3,9 km/h (1 Bft) W-SW 246 2 min 0,000 mm 2,9 UV-I 590 W/m 18,9 C 26,3 C 8,0 km/h (2 Bft) 100,00 %
11.09.2016 14:54 26,3 C 62 % 1016,2 hPa 0,0 l/m 2,8 km/h (1 Bft) W 265 2 min 0,000 mm 2,9 UV-I 586 W/m 18,4 C 26,3 C 4,8 km/h (1 Bft) 95,74 %
11.09.2016 14:56 26,4 C 64 % 1016,2 hPa 0,0 l/m 0,8 km/h (0 Bft) SW 233 2 min 0,000 mm 2,9 UV-I 587 W/m 19,0 C 26,4 C 4,8 km/h (1 Bft) 98,11 %
11.09.2016 14:58 26,6 C 62 % 1016,2 hPa 0,0 l/m 2,9 km/h (1 Bft) SW 232 2 min 0,000 mm 2,8 UV-I 583 W/m 18,7 C 26,6 C 6,4 km/h (2 Bft) 97,37 %
11.09.2016 15:00 26,4 C 63 % 1016,2 hPa 0,0 l/m 3,7 km/h (1 Bft) S-SW 194 2 min 0,000 mm 2,8 UV-I 577 W/m 18,8 C 26,4 C 6,4 km/h (2 Bft) 98,11 %
11.09.2016 15:02 26,3 C 62 % 1016,1 hPa 0,0 l/m 5,6 km/h (1 Bft) SW 219 2 min 0,407 mm 2,8 UV-I 573 W/m 18,4 C 26,3 C 6,4 km/h (2 Bft) 97,87 %
11.09.2016 15:04 26,2 C 63 % 1016,1 hPa 0,0 l/m 4,2 km/h (1 Bft) SW 219 2 min 0,000 mm 2,7 UV-I 570 W/m 18,6 C 26,2 C 8,0 km/h (2 Bft) 97,37 %
11.09.2016 15:06 26,3 C 62 % 1016,1 hPa 0,0 l/m 1,0 km/h (0 Bft) SW 219 2 min 0,000 mm 2,7 UV-I 566 W/m 18,4 C 26,3 C 3,2 km/h (1 Bft) 96,23 %
11.09.2016 15:08 26,3 C 62 % 1016,1 hPa 0,0 l/m 0,4 km/h (0 Bft) SW 219 2 min 0,000 mm 2,7 UV-I 564 W/m 18,4 C 26,3 C 1,6 km/h (1 Bft) 93,62 %
11.09.2016 15:10 26,4 C 64 % 1016,1 hPa 0,0 l/m 1,1 km/h (1 Bft) SW 219 2 min 0,000 mm 2,6 UV-I 560 W/m 19,0 C 26,4 C 3,2 km/h (1 Bft) 96,00 %
11.09.2016 15:12 26,7 C 62 % 1016,1 hPa 0,0 l/m 3,1 km/h (1 Bft) S 182 2 min 0,000 mm 2,6 UV-I 562 W/m 18,8 C 26,7 C 8,0 km/h (2 Bft) 96,00 %
11.09.2016 15:14 26,7 C 60 % 1016,1 hPa 0,0 l/m 3,4 km/h (1 Bft) S-SW 200 2 min 0,000 mm 2,6 UV-I 556 W/m 18,3 C 26,7 C 8,0 km/h (2 Bft) 97,37 %
11.09.2016 15:16 26,6 C 62 % 1016,1 hPa 0,0 l/m 5,1 km/h (1 Bft) S 189 2 min 0,000 mm 2,5 UV-I 551 W/m 18,7 C 26,6 C 9,7 km/h (2 Bft) 98,11 %
11.09.2016 15:18 26,6 C 61 % 1016,1 hPa 0,0 l/m 3,4 km/h (1 Bft) SW 215 2 min 0,000 mm 2,5 UV-I 549 W/m 18,4 C 26,6 C 6,4 km/h (2 Bft) 97,87 %
11.09.2016 15:20 26,7 C 62 % 1016,0 hPa 0,0 l/m 4,0 km/h (1 Bft) S-SW 202 2 min 0,000 mm 2,5 UV-I 548 W/m 18,8 C 26,7 C 8,0 km/h (2 Bft) 97,37 %
11.09.2016 15:22 26,6 C 61 % 1016,0 hPa 0,0 l/m 4,5 km/h (1 Bft) S-SW 200 2 min 0,000 mm 2,4 UV-I 546 W/m 18,4 C 26,6 C 8,0 km/h (2 Bft) 97,92 %
11.09.2016 15:24 26,5 C 62 % 1016,0 hPa 0,0 l/m 2,3 km/h (1 Bft) W 263 2 min 0,000 mm 2,4 UV-I 542 W/m 18,6 C 26,5 C 4,8 km/h (1 Bft) 96,00 %
11.09.2016 15:26 26,7 C 62 % 1016,0 hPa 0,0 l/m 2,9 km/h (1 Bft) W 265 2 min 0,000 mm 2,4 UV-I 539 W/m 18,8 C 26,7 C 6,4 km/h (2 Bft) 100,00 %
11.09.2016 15:28 26,7 C 60 % 1016,1 hPa 0,0 l/m 1,1 km/h (1 Bft) W 265 2 min 0,000 mm 2,3 UV-I 534 W/m 18,3 C 26,7 C 3,2 km/h (1 Bft) 100,00 %
11.09.2016 15:30 26,8 C 63 % 1016,0 hPa 0,0 l/m 2,3 km/h (1 Bft) N-NO 29 2 min 0,000 mm 2,3 UV-I 528 W/m 19,1 C 26,8 C 6,4 km/h (2 Bft) 100,00 %
11.09.2016 15:32 27,0 C 64 % 1015,9 hPa 0,0 l/m 5,2 km/h (1 Bft) O-NO 58 2 min 0,000 mm 2,3 UV-I 521 W/m 19,6 C 27,0 C 8,0 km/h (2 Bft) 100,00 %
11.09.2016 15:34 27,1 C 62 % 1015,9 hPa 0,0 l/m 3,1 km/h (1 Bft) NO 45 2 min 0,000 mm 2,2 UV-I 518 W/m 19,2 C 27,1 C 8,0 km/h (2 Bft) 100,00 %
11.09.2016 15:36 27,1 C 62 % 1015,9 hPa 0,0 l/m 2,3 km/h (1 Bft) N-NO 17 2 min 0,000 mm 2,2 UV-I 514 W/m 19,2 C 27,1 C 4,8 km/h (1 Bft) 100,00 %
11.09.2016 15:38 27,0 C 60 % 1015,9 hPa 0,0 l/m 1,1 km/h (1 Bft) N-NO 30 2 min 0,000 mm 2,2 UV-I 511 W/m 18,6 C 27,0 C 4,8 km/h (1 Bft) 100,00 %
11.09.2016 15:40 27,1 C 61 % 1015,9 hPa 0,0 l/m 1,4 km/h (1 Bft) N 9 2 min 0,000 mm 2,1 UV-I 508 W/m 18,9 C 27,1 C 3,2 km/h (1 Bft) 100,00 %
11.09.2016 15:42 27,1 C 63 % 1015,9 hPa 0,0 l/m 2,1 km/h (1 Bft) N-NW 331 2 min 0,000 mm 2,1 UV-I 503 W/m 19,4 C 27,1 C 4,8 km/h (1 Bft) 100,00 %
11.09.2016 15:44 27,2 C 59 % 1015,9 hPa 0,0 l/m 1,8 km/h (1 Bft) NW 310 2 min 0,000 mm 2,1 UV-I 498 W/m 18,5 C 27,2 C 4,8 km/h (1 Bft) 100,00 %
11.09.2016 15:46 27,1 C 60 % 1015,8 hPa 0,0 l/m 2,9 km/h (1 Bft) NW 312 2 min 0,000 mm 2,0 UV-I 493 W/m 18,6 C 27,1 C 6,4 km/h (2 Bft) 97,87 %
11.09.2016 15:48 27,0 C 61 % 1015,8 hPa 0,0 l/m 2,8 km/h (1 Bft) W-NW 296 2 min 0,000 mm 2,0 UV-I 489 W/m 18,8 C 27,0 C 4,8 km/h (1 Bft) 100,00 %
11.09.2016 15:50 26,9 C 61 % 1015,8 hPa 0,0 l/m 1,3 km/h (1 Bft) NW 306 2 min 0,000 mm 2,0 UV-I 486 W/m 18,7 C 26,9 C 3,2 km/h (1 Bft) 100,00 %
11.09.2016 15:52 26,9 C 59 % 1015,8 hPa 0,0 l/m 2,3 km/h (1 Bft) NW 306 2 min 0,000 mm 1,9 UV-I 483 W/m 18,2 C 26,9 C 3,2 km/h (1 Bft) 100,00 %
11.09.2016 15:54 26,9 C 61 % 1015,8 hPa 0,0 l/m 2,3 km/h (1 Bft) W-NW 291 2 min 0,000 mm 1,9 UV-I 479 W/m 18,7 C 26,9 C 4,8 km/h (1 Bft) 100,00 %
11.09.2016 15:56 26,8 C 59 % 1015,8 hPa 0,0 l/m 1,0 km/h (0 Bft) W-NW 298 2 min 0,000 mm 1,9 UV-I 475 W/m 18,1 C 26,8 C 4,8 km/h (1 Bft) 100,00 %
11.09.2016 15:58 26,9 C 63 % 1015,8 hPa 0,0 l/m 3,0 km/h (1 Bft) N-NO 30 2 min 0,000 mm 1,8 UV-I 470 W/m 19,2 C 26,9 C 6,4 km/h (2 Bft) 100,00 %
11.09.2016 16:00 27,1 C 59 % 1015,8 hPa 0,0 l/m 3,6 km/h (1 Bft) N 11 2 min 0,000 mm 1,8 UV-I 466 W/m 18,4 C 27,1 C 6,4 km/h (2 Bft) 98,00 %
11.09.2016 16:02 27,2 C 60 % 1015,9 hPa 0,0 l/m 3,3 km/h (1 Bft) NO 56 2 min 0,355 mm 1,7 UV-I 458 W/m 18,7 C 27,2 C 6,4 km/h (2 Bft) 100,00 %
11.09.2016 16:04 27,2 C 59 % 1015,8 hPa 0,0 l/m 3,2 km/h (1 Bft) N 355 2 min 0,000 mm 1,7 UV-I 452 W/m 18,5 C 27,2 C 4,8 km/h (1 Bft) 100,00 %
11.09.2016 16:06 27,2 C 58 % 1015,8 hPa 0,0 l/m 1,6 km/h (1 Bft) N-NW 348 2 min 0,000 mm 1,7 UV-I 446 W/m 18,2 C 27,2 C 3,2 km/h (1 Bft) 100,00 %
11.09.2016 16:08 27,2 C 58 % 1015,8 hPa 0,0 l/m 1,9 km/h (1 Bft) N-NW 329 2 min 0,000 mm 1,6 UV-I 442 W/m 18,2 C 27,2 C 3,2 km/h (1 Bft) 100,00 %
11.09.2016 16:10 27,2 C 58 % 1015,8 hPa 0,0 l/m 1,6 km/h (1 Bft) N-NW 329 2 min 0,000 mm 1,6 UV-I 439 W/m 18,2 C 27,2 C 3,2 km/h (1 Bft) 98,00 %
11.09.2016 16:12 27,2 C 59 % 1015,8 hPa 0,0 l/m 1,9 km/h (1 Bft) N-NW 338 2 min 0,000 mm 1,6 UV-I 434 W/m 18,5 C 27,2 C 4,8 km/h (1 Bft) 100,00 %
11.09.2016 16:14 27,2 C 59 % 1015,7 hPa 0,0 l/m 1,9 km/h (1 Bft) N 351 2 min 0,000 mm 1,5 UV-I 431 W/m 18,5 C 27,2 C 3,2 km/h (1 Bft) 100,00 %
11.09.2016 16:16 27,1 C 60 % 1015,8 hPa 0,0 l/m 1,3 km/h (1 Bft) N 360 2 min 0,000 mm 1,5 UV-I 429 W/m 18,6 C 27,1 C 4,8 km/h (1 Bft) 95,74 %
11.09.2016 16:18 27,1 C 58 % 1015,8 hPa 0,0 l/m 1,4 km/h (1 Bft) N 355 2 min 0,000 mm 1,5 UV-I 425 W/m 18,1 C 27,1 C 3,2 km/h (1 Bft) 100,00 %
11.09.2016 16:20 27,1 C 61 % 1015,7 hPa 0,0 l/m 2,3 km/h (1 Bft) NO 50 2 min 0,000 mm 1,4 UV-I 420 W/m 18,9 C 27,1 C 6,4 km/h (2 Bft) 100,00 %
11.09.2016 16:22 27,2 C 58 % 1015,8 hPa 0,0 l/m 3,7 km/h (1 Bft) O-NO 63 2 min 0,000 mm 1,4 UV-I 411 W/m 18,2 C 27,2 C 6,4 km/h (2 Bft) 100,00 %
11.09.2016 16:24 27,2 C 61 % 1015,8 hPa 0,0 l/m 3,2 km/h (1 Bft) N-NO 32 2 min 0,000 mm 1,4 UV-I 406 W/m 19,0 C 27,2 C 6,4 km/h (2 Bft) 100,00 %
11.09.2016 16:26 27,1 C 56 % 1015,8 hPa 0,0 l/m 2,0 km/h (1 Bft) NO 53 2 min 0,000 mm 1,3 UV-I 403 W/m 17,5 C 27,1 C 4,8 km/h (1 Bft) 100,00 %
11.09.2016 16:28 27,1 C 59 % 1015,8 hPa 0,0 l/m 0,9 km/h (0 Bft) N-NW 340 2 min 0,000 mm 1,3 UV-I 396 W/m 18,4 C 27,1 C 3,2 km/h (1 Bft) 100,00 %
11.09.2016 16:30 27,1 C 59 % 1015,8 hPa 0,0 l/m 2,5 km/h (1 Bft) N 350 2 min 0,000 mm 1,3 UV-I 391 W/m 18,4 C 27,1 C 4,8 km/h (1 Bft) 100,00 %
11.09.2016 16:32 27,2 C 61 % 1015,9 hPa 0,0 l/m 2,9 km/h (1 Bft) N-NO 19 2 min 0,000 mm 1,3 UV-I 387 W/m 19,0 C 27,2 C 4,8 km/h (1 Bft) 100,00 %
11.09.2016 16:34 27,3 C 58 % 1015,9 hPa 0,0 l/m 2,4 km/h (1 Bft) N-NW 330 2 min 0,000 mm 1,2 UV-I 380 W/m 18,3 C 27,3 C 4,8 km/h (1 Bft) 97,37 %
11.09.2016 16:36 27,3 C 58 % 1015,9 hPa 0,0 l/m 2,2 km/h (1 Bft) NW 319 2 min 0,000 mm 1,2 UV-I 369 W/m 18,3 C 27,3 C 4,8 km/h (1 Bft) 100,00 %
11.09.2016 16:38 27,2 C 58 % 1015,9 hPa 0,0 l/m 1,2 km/h (1 Bft) NW 320 2 min 0,000 mm 1,2 UV-I 368 W/m 18,2 C 27,2 C 1,6 km/h (1 Bft) 100,00 %
11.09.2016 16:40 27,1 C 60 % 1015,9 hPa 0,0 l/m 1,5 km/h (1 Bft) N-NW 347 2 min 0,000 mm 1,1 UV-I 362 W/m 18,6 C 27,1 C 3,2 km/h (1 Bft) 97,73 %
11.09.2016 16:42 27,2 C 58 % 1015,8 hPa 0,0 l/m 1,5 km/h (1 Bft) N-NW 334 2 min 0,000 mm 1,1 UV-I 359 W/m 18,2 C 27,2 C 3,2 km/h (1 Bft) 96,00 %
11.09.2016 16:44 27,2 C 57 % 1015,9 hPa 0,0 l/m 1,1 km/h (1 Bft) N-NW 334 2 min 0,000 mm 1,1 UV-I 353 W/m 17,9 C 27,2 C 3,2 km/h (1 Bft) 97,22 %
11.09.2016 16:46 27,1 C 57 % 1015,8 hPa 0,0 l/m 1,2 km/h (1 Bft) N-NO 25 2 min 0,000 mm 1,1 UV-I 349 W/m 17,8 C 27,1 C 4,8 km/h (1 Bft) 98,00 %
11.09.2016 16:48 27,1 C 59 % 1015,9 hPa 0,0 l/m 4,8 km/h (1 Bft) NO 34 2 min 0,000 mm 1,0 UV-I 341 W/m 18,4 C 27,1 C 6,4 km/h (2 Bft) 97,87 %
11.09.2016 16:50 27,2 C 57 % 1015,9 hPa 0,0 l/m 4,1 km/h (1 Bft) O-NO 57 2 min 0,000 mm 1,0 UV-I 337 W/m 17,9 C 27,2 C 4,8 km/h (1 Bft) 98,11 %
11.09.2016 16:52 27,1 C 58 % 1015,9 hPa 0,0 l/m 1,9 km/h (1 Bft) N-NW 348 2 min 0,000 mm 1,0 UV-I 333 W/m 18,1 C 27,1 C 4,8 km/h (1 Bft) 97,14 %
11.09.2016 16:54 27,1 C 59 % 1015,9 hPa 0,0 l/m 1,3 km/h (1 Bft) N-NW 348 2 min 0,000 mm 0,9 UV-I 329 W/m 18,4 C 27,1 C 3,2 km/h (1 Bft) 96,23 %
11.09.2016 16:56 27,2 C 58 % 1015,8 hPa 0,0 l/m 1,3 km/h (1 Bft) O-NO 59 2 min 0,000 mm 0,9 UV-I 324 W/m 18,2 C 27,2 C 4,8 km/h (1 Bft) 93,62 %
11.09.2016 16:58 27,2 C 57 % 1015,8 hPa 0,0 l/m 4,9 km/h (1 Bft) O-NO 71 2 min 0,000 mm 0,9 UV-I 317 W/m 17,9 C 27,2 C 6,4 km/h (2 Bft) 97,87 %
11.09.2016 17:00 27,3 C 59 % 1015,8 hPa 0,0 l/m 4,2 km/h (1 Bft) O 81 2 min 0,000 mm 0,9 UV-I 309 W/m 18,6 C 27,3 C 6,4 km/h (2 Bft) 98,00 %
11.09.2016 17:02 27,2 C 57 % 1015,7 hPa 0,0 l/m 3,2 km/h (1 Bft) O-NO 66 2 min 0,280 mm 0,8 UV-I 306 W/m 17,9 C 27,2 C 4,8 km/h (1 Bft) 98,08 %
11.09.2016 17:04 27,2 C 58 % 1015,8 hPa 0,0 l/m 3,0 km/h (1 Bft) O-NO 67 2 min 0,000 mm 0,8 UV-I 301 W/m 18,2 C 27,2 C 4,8 km/h (1 Bft) 97,37 %
11.09.2016 17:06 27,1 C 57 % 1015,8 hPa 0,0 l/m 0,9 km/h (0 Bft) O-NO 67 2 min 0,000 mm 0,8 UV-I 295 W/m 17,8 C 27,1 C 3,2 km/h (1 Bft) 98,11 %
11.09.2016 17:08 27,1 C 58 % 1015,7 hPa 0,0 l/m 3,1 km/h (1 Bft) SO 127 2 min 0,000 mm 0,8 UV-I 290 W/m 18,1 C 27,1 C 4,8 km/h (1 Bft) 97,87 %
11.09.2016 17:10 27,0 C 58 % 1015,8 hPa 0,0 l/m 2,9 km/h (1 Bft) SO 127 2 min 0,000 mm 0,8 UV-I 283 W/m 18,0 C 27,0 C 4,8 km/h (1 Bft) 97,56 %
11.09.2016 17:12 27,0 C 58 % 1015,8 hPa 0,0 l/m 1,2 km/h (1 Bft) SO 127 2 min 0,000 mm 0,7 UV-I 279 W/m 18,0 C 27,0 C 3,2 km/h (1 Bft) 96,00 %
11.09.2016 17:14 27,1 C 57 % 1015,7 hPa 0,0 l/m 2,9 km/h (1 Bft) SO 129 2 min 0,000 mm 0,7 UV-I 273 W/m 17,8 C 27,1 C 4,8 km/h (1 Bft) 100,00 %
11.09.2016 17:16 26,9 C 57 % 1015,7 hPa 0,0 l/m 1,9 km/h (1 Bft) SO 130 2 min 0,000 mm 0,7 UV-I 271 W/m 17,6 C 26,9 C 3,2 km/h (1 Bft) 100,00 %
11.09.2016 17:18 26,9 C 57 % 1015,7 hPa 0,0 l/m 3,4 km/h (1 Bft) S-SO 153 2 min 0,000 mm 0,7 UV-I 262 W/m 17,6 C 26,9 C 6,4 km/h (2 Bft) 98,21 %
11.09.2016 17:20 26,9 C 57 % 1015,7 hPa 0,0 l/m 1,5 km/h (1 Bft) S-SO 153 2 min 0,000 mm 0,6 UV-I 263 W/m 17,6 C 26,9 C 3,2 km/h (1 Bft) 100,00 %
11.09.2016 17:22 26,9 C 57 % 1015,6 hPa 0,0 l/m 0,3 km/h (0 Bft) S-SO 153 2 min 0,000 mm 0,6 UV-I 260 W/m 17,6 C 26,9 C 1,6 km/h (1 Bft) 100,00 %
11.09.2016 17:24 26,9 C 59 % 1015,7 hPa 0,0 l/m 1,3 km/h (1 Bft) O 98 2 min 0,000 mm 0,6 UV-I 254 W/m 18,2 C 26,9 C 4,8 km/h (1 Bft) 98,11 %
11.09.2016 17:26 27,0 C 58 % 1015,7 hPa 0,0 l/m 3,0 km/h (1 Bft) O 80 2 min 0,000 mm 0,6 UV-I 248 W/m 18,0 C 27,0 C 4,8 km/h (1 Bft) 100,00 %
11.09.2016 17:28 27,0 C 56 % 1015,7 hPa 0,0 l/m 2,5 km/h (1 Bft) O 80 2 min 0,000 mm 0,6 UV-I 243 W/m 17,5 C 27,0 C 4,8 km/h (1 Bft) 100,00 %
11.09.2016 17:30 26,9 C 56 % 1015,7 hPa 0,0 l/m 1,4 km/h (1 Bft) O 80 2 min 0,000 mm 0,5 UV-I 238 W/m 17,4 C 26,9 C 3,2 km/h (1 Bft) 97,50 %
11.09.2016 17:32 26,9 C 59 % 1015,7 hPa 0,0 l/m 2,5 km/h (1 Bft) O 80 2 min 0,000 mm 0,5 UV-I 234 W/m 18,2 C 26,9 C 4,8 km/h (1 Bft) 100,00 %
11.09.2016 17:34 27,0 C 58 % 1015,7 hPa 0,0 l/m 2,9 km/h (1 Bft) O 80 2 min 0,000 mm 0,5 UV-I 231 W/m 18,0 C 27,0 C 4,8 km/h (1 Bft) 100,00 %
11.09.2016 17:36 27,1 C 60 % 1015,6 hPa 0,0 l/m 1,8 km/h (1 Bft) O 80 2 min 0,000 mm 0,5 UV-I 226 W/m 18,6 C 27,1 C 3,2 km/h (1 Bft) 100,00 %
11.09.2016 17:38 27,0 C 58 % 1015,7 hPa 0,0 l/m 2,2 km/h (1 Bft) O 80 2 min 0,000 mm 0,3 UV-I 220 W/m 18,0 C 27,0 C 4,8 km/h (1 Bft) 98,00 %
11.09.2016 17:40 27,0 C 59 % 1015,7 hPa 0,0 l/m 4,3 km/h (1 Bft) O-SO 105 2 min 0,000 mm 0,0 UV-I 213 W/m 18,3 C 27,0 C 4,8 km/h (1 Bft) 97,56 %
11.09.2016 17:42 26,9 C 61 % 1015,7 hPa 0,0 l/m 4,3 km/h (1 Bft) O-SO 111 2 min 0,000 mm 0,0 UV-I 207 W/m 18,7 C 26,9 C 6,4 km/h (2 Bft) 97,87 %
11.09.2016 17:44 26,9 C 59 % 1015,7 hPa 0,0 l/m 2,8 km/h (1 Bft) O-SO 111 2 min 0,000 mm 0,0 UV-I 202 W/m 18,2 C 26,9 C 4,8 km/h (1 Bft) 100,00 %
11.09.2016 17:46 26,9 C 59 % 1015,7 hPa 0,0 l/m 2,7 km/h (1 Bft) O-SO 112 2 min 0,000 mm 0,0 UV-I 198 W/m 18,2 C 26,9 C 3,2 km/h (1 Bft) 100,00 %
11.09.2016 17:48 26,9 C 59 % 1015,7 hPa 0,0 l/m 4,0 km/h (1 Bft) S 170 2 min 0,000 mm 0,0 UV-I 193 W/m 18,2 C 26,9 C 9,7 km/h (2 Bft) 97,87 %
11.09.2016 17:50 26,9 C 58 % 1015,7 hPa 0,0 l/m 4,4 km/h (1 Bft) S-SO 155 2 min 0,000 mm 0,0 UV-I 189 W/m 17,9 C 26,9 C 8,0 km/h (2 Bft) 100,00 %
11.09.2016 17:52 27,0 C 59 % 1015,7 hPa 0,0 l/m 2,6 km/h (1 Bft) S-SO 155 2 min 0,000 mm 0,0 UV-I 185 W/m 18,3 C 27,0 C 4,8 km/h (1 Bft) 100,00 %
11.09.2016 17:54 26,9 C 59 % 1015,7 hPa 0,0 l/m 4,7 km/h (1 Bft) S-SO 167 2 min 0,000 mm 0,0 UV-I 181 W/m 18,2 C 26,9 C 8,0 km/h (2 Bft) 100,00 %
11.09.2016 17:56 26,9 C 58 % 1015,7 hPa 0,0 l/m 4,5 km/h (1 Bft) S-SO 158 2 min 0,000 mm 0,0 UV-I 175 W/m 17,9 C 26,9 C 6,4 km/h (2 Bft) 100,00 %
11.09.2016 17:58 26,8 C 60 % 1015,7 hPa 0,0 l/m 4,2 km/h (1 Bft) SO 128 2 min 0,000 mm 0,0 UV-I 171 W/m 18,4 C 26,8 C 8,0 km/h (2 Bft) 100,00 %
11.09.2016 18:00 26,8 C 60 % 1015,7 hPa 0,0 l/m 3,8 km/h (1 Bft) SO 142 2 min 0,000 mm 0,0 UV-I 167 W/m 18,4 C 26,8 C 6,4 km/h (2 Bft) 100,00 %
11.09.2016 18:02 26,7 C 59 % 1015,7 hPa 0,0 l/m 4,9 km/h (1 Bft) SO 132 2 min 0,178 mm 0,0 UV-I 163 W/m 18,0 C 26,7 C 6,4 km/h (2 Bft) 100,00 %
11.09.2016 18:04 26,7 C 59 % 1015,7 hPa 0,0 l/m 4,6 km/h (1 Bft) SO 132 2 min 0,000 mm 0,0 UV-I 157 W/m 18,0 C 26,7 C 8,0 km/h (2 Bft) 100,00 %
11.09.2016 18:06 26,6 C 61 % 1015,7 hPa 0,0 l/m 3,4 km/h (1 Bft) SO 132 2 min 0,000 mm 0,0 UV-I 153 W/m 18,4 C 26,6 C 4,8 km/h (1 Bft) 100,00 %
11.09.2016 18:08 26,6 C 62 % 1015,7 hPa 0,0 l/m 3,4 km/h (1 Bft) SO 129 2 min 0,000 mm 0,0 UV-I 149 W/m 18,7 C 26,6 C 6,4 km/h (2 Bft) 100,00 %
11.09.2016 18:10 26,6 C 61 % 1015,8 hPa 0,0 l/m 3,8 km/h (1 Bft) SO 129 2 min 0,000 mm 0,0 UV-I 144 W/m 18,4 C 26,6 C 4,8 km/h (1 Bft) 95,74 %
11.09.2016 18:12 26,6 C 61 % 1015,7 hPa 0,0 l/m 2,1 km/h (1 Bft) SO 130 2 min 0,000 mm 0,0 UV-I 140 W/m 18,4 C 26,6 C 4,8 km/h (1 Bft) 100,00 %
11.09.2016 18:14 26,6 C 59 % 1015,7 hPa 0,0 l/m 2,4 km/h (1 Bft) SO 134 2 min 0,000 mm 0,0 UV-I 135 W/m 17,9 C 26,6 C 4,8 km/h (1 Bft) 100,00 %
11.09.2016 18:16 26,6 C 59 % 1015,7 hPa 0,0 l/m 2,5 km/h (1 Bft) SO 136 2 min 0,000 mm 0,0 UV-I 130 W/m 17,9 C 26,6 C 4,8 km/h (1 Bft) 98,39 %
11.09.2016 18:18 26,7 C 60 % 1015,7 hPa 0,0 l/m 2,3 km/h (1 Bft) SO 140 2 min 0,000 mm 0,0 UV-I 125 W/m 18,3 C 26,7 C 3,2 km/h (1 Bft) 100,00 %
11.09.2016 18:20 26,5 C 62 % 1015,7 hPa 0,0 l/m 2,9 km/h (1 Bft) SO 140 2 min 0,000 mm 0,0 UV-I 119 W/m 18,6 C 26,5 C 4,8 km/h (1 Bft) 100,00 %
11.09.2016 18:22 26,5 C 61 % 1015,6 hPa 0,0 l/m 1,6 km/h (1 Bft) SO 140 2 min 0,000 mm 0,0 UV-I 112 W/m 18,4 C 26,5 C 4,8 km/h (1 Bft) 98,11 %
11.09.2016 18:24 26,4 C 62 % 1015,6 hPa 0,0 l/m 2,4 km/h (1 Bft) SO 140 2 min 0,000 mm 0,0 UV-I 106 W/m 18,5 C 26,4 C 3,2 km/h (1 Bft) 100,00 %
11.09.2016 18:26 26,3 C 65 % 1015,6 hPa 0,0 l/m 2,0 km/h (1 Bft) SO 140 2 min 0,000 mm 0,0 UV-I 101 W/m 19,2 C 26,3 C 4,8 km/h (1 Bft) 100,00 %
11.09.2016 18:28 26,2 C 64 % 1015,7 hPa 0,0 l/m 2,4 km/h (1 Bft) SO 140 2 min 0,000 mm 0,0 UV-I 96 W/m 18,8 C 26,2 C 3,2 km/h (1 Bft) 100,00 %
11.09.2016 18:30 26,2 C 63 % 1015,7 hPa 0,0 l/m 2,1 km/h (1 Bft) SO 141 2 min 0,000 mm 0,0 UV-I 91 W/m 18,6 C 26,2 C 3,2 km/h (1 Bft) 100,00 %
11.09.2016 18:32 26,2 C 64 % 1015,7 hPa 0,0 l/m 1,2 km/h (1 Bft) SO 141 2 min 0,000 mm 0,0 UV-I 85 W/m 18,8 C 26,2 C 3,2 km/h (1 Bft) 98,00 %
11.09.2016 18:34 26,1 C 64 % 1015,6 hPa 0,0 l/m 1,5 km/h (1 Bft) SO 141 2 min 0,000 mm 0,0 UV-I 81 W/m 18,7 C 26,1 C 3,2 km/h (1 Bft) 98,00 %
11.09.2016 18:36 26,0 C 64 % 1015,6 hPa 0,0 l/m 1,3 km/h (1 Bft) SO 141 2 min 0,000 mm 0,0 UV-I 77 W/m 18,6 C 26,0 C 3,2 km/h (1 Bft) 95,45 %
11.09.2016 18:38 25,9 C 67 % 1015,6 hPa 0,0 l/m 0,4 km/h (0 Bft) SO 141 2 min 0,000 mm 0,0 UV-I 73 W/m 19,3 C 25,9 C 1,6 km/h (1 Bft) 95,74 %
11.09.2016 18:40 25,8 C 65 % 1015,6 hPa 0,0 l/m 0,6 km/h (0 Bft) SO 141 2 min 0,000 mm 0,0 UV-I 69 W/m 18,7 C 25,8 C 1,6 km/h (1 Bft) 97,87 %
11.09.2016 18:42 25,8 C 65 % 1015,7 hPa 0,0 l/m 0,3 km/h (0 Bft) SO 141 2 min 0,000 mm 0,0 UV-I 65 W/m 18,7 C 25,8 C 1,6 km/h (1 Bft) 100,00 %
11.09.2016 18:44 25,7 C 66 % 1015,6 hPa 0,0 l/m 0,1 km/h (0 Bft) SO 141 2 min 0,000 mm 0,0 UV-I 57 W/m 18,9 C 25,7 C 1,6 km/h (1 Bft) 96,92 %
11.09.2016 18:46 25,6 C 66 % 1015,7 hPa 0,0 l/m 0,2 km/h (0 Bft) SO 141 0 min 0,000 mm 0,0 UV-I 49 W/m 18,8 C 25,6 C 1,6 km/h (1 Bft) 97,87 %
11.09.2016 18:48 25,6 C 67 % 1015,7 hPa 0,0 l/m 0,5 km/h (0 Bft) SO 141 0 min 0,000 mm 0,0 UV-I 47 W/m 19,0 C 25,6 C 1,6 km/h (1 Bft) 94,34 %
11.09.2016 18:50 25,5 C 70 % 1015,7 hPa 0,0 l/m 0,0 km/h (0 Bft) SO 141 0 min 0,000 mm 0,0 UV-I 44 W/m 19,6 C 25,5 C 0,0 km/h (0 Bft) 95,74 %
11.09.2016 18:52 25,2 C 70 % 1015,7 hPa 0,0 l/m 0,1 km/h (0 Bft) SO 141 0 min 0,000 mm 0,0 UV-I 42 W/m 19,3 C 25,2 C 1,6 km/h (1 Bft) 95,74 %
11.09.2016 18:54 25,0 C 70 % 1015,7 hPa 0,0 l/m 0,2 km/h (0 Bft) SO 141 0 min 0,000 mm 0,0 UV-I 39 W/m 19,1 C 25,0 C 1,6 km/h (1 Bft) 97,37 %
11.09.2016 18:56 24,8 C 71 % 1015,8 hPa 0,0 l/m 0,3 km/h (0 Bft) SO 141 0 min 0,000 mm 0,0 UV-I 36 W/m 19,2 C 24,8 C 3,2 km/h (1 Bft) 91,49 %
11.09.2016 18:58 24,6 C 71 % 1015,8 hPa 0,0 l/m 1,8 km/h (1 Bft) SO 141 0 min 0,000 mm 0,0 UV-I 33 W/m 19,0 C 24,6 C 3,2 km/h (1 Bft) 96,23 %
11.09.2016 19:00 24,4 C 74 % 1015,8 hPa 0,0 l/m 0,1 km/h (0 Bft) SO 141 2 min 0,000 mm 0,0 UV-I 30 W/m 19,5 C 24,4 C 1,6 km/h (1 Bft) 97,87 %
11.09.2016 19:02 24,1 C 75 % 1015,8 hPa 0,0 l/m 0,0 km/h (0 Bft) SO 141 2 min 0,076 mm 0,0 UV-I 27 W/m 19,4 C 24,1 C 0,0 km/h (0 Bft) 97,44 %
11.09.2016 19:04 23,8 C 76 % 1015,8 hPa 0,0 l/m 0,6 km/h (0 Bft) SO 141 2 min 0,000 mm 0,0 UV-I 25 W/m 19,3 C 23,8 C 1,6 km/h (1 Bft) 100,00 %
11.09.2016 19:06 23,6 C 75 % 1015,9 hPa 0,0 l/m 1,0 km/h (0 Bft) SO 141 2 min 0,000 mm 0,0 UV-I 22 W/m 18,9 C 23,6 C 1,6 km/h (1 Bft) 100,00 %
11.09.2016 19:08 23,5 C 76 % 1015,9 hPa 0,0 l/m 0,0 km/h (0 Bft) SO 141 2 min 0,000 mm 0,0 UV-I 20 W/m 19,0 C 23,5 C 0,0 km/h (0 Bft) 100,00 %
11.09.2016 19:10 23,6 C 76 % 1015,9 hPa 0,0 l/m 0,0 km/h (0 Bft) SO 141 2 min 0,000 mm 0,0 UV-I 18 W/m 19,1 C 23,6 C 0,0 km/h (0 Bft) 100,00 %
11.09.2016 19:12 23,6 C 76 % 1015,9 hPa 0,0 l/m 0,0 km/h (0 Bft) SO 141 2 min 0,000 mm 0,0 UV-I 16 W/m 19,1 C 23,6 C 0,0 km/h (0 Bft) 100,00 %
11.09.2016 19:14 23,6 C 76 % 1015,9 hPa 0,0 l/m 0,0 km/h (0 Bft) SO 141 0 min 0,000 mm 0,0 UV-I 14 W/m 19,1 C 23,6 C 0,0 km/h (0 Bft) 100,00 %
11.09.2016 19:16 23,4 C 77 % 1015,9 hPa 0,0 l/m 0,0 km/h (0 Bft) SO 141 0 min 0,000 mm 0,0 UV-I 12 W/m 19,1 C 23,4 C 0,0 km/h (0 Bft) 100,00 %
11.09.2016 19:18 23,3 C 77 % 1015,9 hPa 0,0 l/m 0,0 km/h (0 Bft) SO 141 0 min 0,000 mm 0,0 UV-I 11 W/m 19,0 C 23,3 C 0,0 km/h (0 Bft) 100,00 %
11.09.2016 19:20 23,2 C 78 % 1015,9 hPa 0,0 l/m 0,0 km/h (0 Bft) SO 141 0 min 0,000 mm 0,0 UV-I 9 W/m 19,1 C 23,2 C 0,0 km/h (0 Bft) 95,74 %
11.09.2016 19:22 23,1 C 77 % 1016,1 hPa 0,0 l/m 0,0 km/h (0 Bft) SO 141 0 min 0,000 mm 0,0 UV-I 7 W/m 18,8 C 23,1 C 0,0 km/h (0 Bft) 100,00 %
11.09.2016 19:24 22,9 C 78 % 1016,1 hPa 0,0 l/m 0,0 km/h (0 Bft) SO 141 0 min 0,000 mm 0,0 UV-I 6 W/m 18,9 C 22,9 C 0,0 km/h (0 Bft) 100,00 %
11.09.2016 19:26 22,7 C 79 % 1016,1 hPa 0,0 l/m 0,0 km/h (0 Bft) SO 141 0 min 0,000 mm 0,0 UV-I 5 W/m 18,9 C 22,7 C 0,0 km/h (0 Bft) 100,00 %
11.09.2016 19:28 22,5 C 80 % 1016,1 hPa 0,0 l/m 0,7 km/h (0 Bft) SO 141 0 min 0,000 mm 0,0 UV-I 5 W/m 18,9 C 22,5 C 1,6 km/h (1 Bft) 100,00 %
11.09.2016 19:30 22,3 C 81 % 1016,1 hPa 0,0 l/m 0,0 km/h (0 Bft) SO 141 0 min 0,000 mm 0,0 UV-I 5 W/m 18,9 C 22,3 C 1,6 km/h (1 Bft) 100,00 %
11.09.2016 19:32 22,2 C 81 % 1016,1 hPa 0,0 l/m 0,0 km/h (0 Bft) SO 141 0 min 0,000 mm 0,0 UV-I 0 W/m 18,8 C 22,2 C 0,0 km/h (0 Bft) 100,00 %
11.09.2016 19:34 22,1 C 81 % 1016,2 hPa 0,0 l/m 0,0 km/h (0 Bft) SO 141 0 min 0,000 mm 0,0 UV-I 0 W/m 18,7 C 22,1 C 0,0 km/h (0 Bft) 100,00 %
11.09.2016 19:36 22,1 C 81 % 1016,2 hPa 0,0 l/m 0,0 km/h (0 Bft) SO 141 0 min 0,000 mm 0,0 UV-I 0 W/m 18,7 C 22,1 C 0,0 km/h (0 Bft) 100,00 %
11.09.2016 19:38 22,2 C 81 % 1016,2 hPa 0,0 l/m 0,0 km/h (0 Bft) SO 141 0 min 0,000 mm 0,0 UV-I 0 W/m 18,8 C 22,2 C 0,0 km/h (0 Bft) 100,00 %
11.09.2016 19:40 22,2 C 81 % 1016,2 hPa 0,0 l/m 0,0 km/h (0 Bft) SO 141 0 min 0,000 mm 0,0 UV-I 0 W/m 18,8 C 22,2 C 0,0 km/h (0 Bft) 100,00 %
11.09.2016 19:42 22,1 C 81 % 1016,1 hPa 0,0 l/m 0,3 km/h (0 Bft) SO 141 0 min 0,000 mm 0,0 UV-I 0 W/m 18,7 C 22,1 C 1,6 km/h (1 Bft) 100,00 %
11.09.2016 19:44 21,9 C 81 % 1016,2 hPa 0,0 l/m 0,1 km/h (0 Bft) SO 141 0 min 0,000 mm 0,0 UV-I 0 W/m 18,5 C 21,9 C 1,6 km/h (1 Bft) 97,87 %
11.09.2016 19:46 21,8 C 80 % 1016,1 hPa 0,0 l/m 2,2 km/h (1 Bft) SO 141 0 min 0,000 mm 0,0 UV-I 0 W/m 18,2 C 21,8 C 3,2 km/h (1 Bft) 100,00 %
11.09.2016 19:48 21,8 C 80 % 1016,2 hPa 0,0 l/m 3,0 km/h (1 Bft) SO 141 0 min 0,000 mm 0,0 UV-I 0 W/m 18,2 C 21,8 C 3,2 km/h (1 Bft) 98,11 %
11.09.2016 19:50 21,6 C 81 % 1016,2 hPa 0,0 l/m 3,0 km/h (1 Bft) SO 141 0 min 0,000 mm 0,0 UV-I 0 W/m 18,2 C 21,6 C 3,2 km/h (1 Bft) 100,00 %
11.09.2016 19:52 21,4 C 82 % 1016,2 hPa 0,0 l/m 2,2 km/h (1 Bft) SO 141 0 min 0,000 mm 0,0 UV-I 0 W/m 18,2 C 21,4 C 3,2 km/h (1 Bft) 100,00 %
11.09.2016 19:54 21,2 C 82 % 1016,3 hPa 0,0 l/m 0,3 km/h (0 Bft) SO 141 0 min 0,000 mm 0,0 UV-I 0 W/m 18,0 C 21,2 C 1,6 km/h (1 Bft) 95,74 %
11.09.2016 19:56 21,2 C 82 % 1016,3 hPa 0,0 l/m 0,0 km/h (0 Bft) SO 141 0 min 0,000 mm 0,0 UV-I 0 W/m 18,0 C 21,2 C 0,0 km/h (0 Bft) 100,00 %
11.09.2016 19:58 21,3 C 82 % 1016,3 hPa 0,0 l/m 0,0 km/h (0 Bft) SO 141 0 min 0,000 mm 0,0 UV-I 0 W/m 18,1 C 21,3 C 0,0 km/h (0 Bft) 100,00 %
11.09.2016 20:00 21,4 C 82 % 1016,4 hPa 0,0 l/m 0,0 km/h (0 Bft) SO 141 0 min 0,000 mm 0,0 UV-I 0 W/m 18,2 C 21,4 C 0,0 km/h (0 Bft) 97,87 %
11.09.2016 20:02 21,4 C 82 % 1016,4 hPa 0,0 l/m 0,0 km/h (0 Bft) SO 141 0 min 0,000 mm 0,0 UV-I 0 W/m 18,2 C 21,4 C 0,0 km/h (0 Bft) 100,00 %
11.09.2016 20:04 21,4 C 82 % 1016,4 hPa 0,0 l/m 0,1 km/h (0 Bft) SO 141 0 min 0,000 mm 0,0 UV-I 0 W/m 18,2 C 21,4 C 1,6 km/h (1 Bft) 100,00 %
11.09.2016 20:06 21,2 C 82 % 1016,4 hPa 0,0 l/m 1,2 km/h (1 Bft) SO 141 0 min 0,000 mm 0,0 UV-I 0 W/m 18,0 C 21,2 C 3,2 km/h (1 Bft) 100,00 %
11.09.2016 20:08 21,1 C 82 % 1016,4 hPa 0,0 l/m 3,3 km/h (1 Bft) SO 141 0 min 0,000 mm 0,0 UV-I 0 W/m 17,9 C 21,1 C 4,8 km/h (1 Bft) 100,00 %
11.09.2016 20:10 21,0 C 83 % 1016,5 hPa 0,0 l/m 3,5 km/h (1 Bft) SO 141 0 min 0,000 mm 0,0 UV-I 0 W/m 18,0 C 21,0 C 4,8 km/h (1 Bft) 100,00 %
11.09.2016 20:12 21,1 C 82 % 1016,4 hPa 0,0 l/m 4,1 km/h (1 Bft) SO 141 0 min 0,000 mm 0,0 UV-I 0 W/m 17,9 C 21,1 C 4,8 km/h (1 Bft) 100,00 %
11.09.2016 20:14 21,1 C 82 % 1016,5 hPa 0,0 l/m 3,9 km/h (1 Bft) SO 141 0 min 0,000 mm 0,0 UV-I 0 W/m 17,9 C 21,1 C 4,8 km/h (1 Bft) 100,00 %
11.09.2016 20:16 20,9 C 83 % 1016,6 hPa 0,0 l/m 3,7 km/h (1 Bft) SO 141 0 min 0,000 mm 0,0 UV-I 0 W/m 17,9 C 20,9 C 4,8 km/h (1 Bft) 100,00 %
11.09.2016 20:18 20,8 C 83 % 1016,5 hPa 0,0 l/m 1,6 km/h (1 Bft) SO 141 0 min 0,000 mm 0,0 UV-I 0 W/m 17,8 C 20,8 C 3,2 km/h (1 Bft) 100,00 %
11.09.2016 20:20 20,8 C 84 % 1016,6 hPa 0,0 l/m 0,4 km/h (0 Bft) SO 141 0 min 0,000 mm 0,0 UV-I 0 W/m 18,0 C 20,8 C 1,6 km/h (1 Bft) 100,00 %
11.09.2016 20:22 20,8 C 84 % 1016,6 hPa 0,0 l/m 1,1 km/h (1 Bft) SO 141 0 min 0,000 mm 0,0 UV-I 0 W/m 18,0 C 20,8 C 1,6 km/h (1 Bft) 100,00 %
11.09.2016 20:24 20,9 C 84 % 1016,6 hPa 0,0 l/m 1,7 km/h (1 Bft) SO 141 0 min 0,000 mm 0,0 UV-I 0 W/m 18,1 C 20,9 C 3,2 km/h (1 Bft) 100,00 %
11.09.2016 20:26 20,9 C 83 % 1016,6 hPa 0,0 l/m 2,1 km/h (1 Bft) SO 141 0 min 0,000 mm 0,0 UV-I 0 W/m 17,9 C 20,9 C 3,2 km/h (1 Bft) 100,00 %
11.09.2016 20:28 20,9 C 83 % 1016,7 hPa 0,0 l/m 2,2 km/h (1 Bft) SO 141 0 min 0,000 mm 0,0 UV-I 0 W/m 17,9 C 20,9 C 3,2 km/h (1 Bft) 100,00 %
11.09.2016 20:30 20,9 C 83 % 1016,7 hPa 0,0 l/m 2,1 km/h (1 Bft) SO 141 0 min 0,000 mm 0,0 UV-I 0 W/m 17,9 C 20,9 C 3,2 km/h (1 Bft) 97,73 %
11.09.2016 20:32 20,9 C 83 % 1016,7 hPa 0,0 l/m 2,2 km/h (1 Bft) SO 141 0 min 0,000 mm 0,0 UV-I 0 W/m 17,9 C 20,9 C 3,2 km/h (1 Bft) 97,56 %
11.09.2016 20:34 20,8 C 84 % 1016,7 hPa 0,0 l/m 2,9 km/h (1 Bft) SO 141 0 min 0,000 mm 0,0 UV-I 0 W/m 18,0 C 20,8 C 3,2 km/h (1 Bft) 98,00 %
11.09.2016 20:36 20,7 C 84 % 1016,7 hPa 0,0 l/m 2,8 km/h (1 Bft) SO 141 0 min 0,000 mm 0,0 UV-I 0 W/m 17,9 C 20,7 C 3,2 km/h (1 Bft) 97,44 %
11.09.2016 20:38 20,6 C 84 % 1016,7 hPa 0,0 l/m 3,8 km/h (1 Bft) SO 141 0 min 0,000 mm 0,0 UV-I 0 W/m 17,8 C 20,6 C 4,8 km/h (1 Bft) 98,00 %
11.09.2016 20:40 20,5 C 85 % 1016,7 hPa 0,0 l/m 3,9 km/h (1 Bft) SO 141 0 min 0,000 mm 0,0 UV-I 0 W/m 17,9 C 20,5 C 4,8 km/h (1 Bft) 95,74 %
11.09.2016 20:42 20,5 C 85 % 1016,7 hPa 0,0 l/m 2,5 km/h (1 Bft) SO 141 0 min 0,000 mm 0,0 UV-I 0 W/m 17,9 C 20,5 C 3,2 km/h (1 Bft) 95,74 %
11.09.2016 20:44 20,5 C 85 % 1016,7 hPa 0,0 l/m 2,0 km/h (1 Bft) SO 141 0 min 0,000 mm 0,0 UV-I 0 W/m 17,9 C 20,5 C 3,2 km/h (1 Bft) 96,43 %
11.09.2016 20:46 20,6 C 85 % 1016,7 hPa 0,0 l/m 1,6 km/h (1 Bft) SO 141 0 min 0,000 mm 0,0 UV-I 0 W/m 18,0 C 20,6 C 3,2 km/h (1 Bft) 95,74 %
11.09.2016 20:48 20,6 C 85 % 1016,7 hPa 0,0 l/m 2,0 km/h (1 Bft) SO 141 0 min 0,000 mm 0,0 UV-I 0 W/m 18,0 C 20,6 C 3,2 km/h (1 Bft) 95,12 %
11.09.2016 20:50 20,7 C 85 % 1016,8 hPa 0,0 l/m 2,3 km/h (1 Bft) SO 141 0 min 0,000 mm 0,0 UV-I 0 W/m 18,1 C 20,7 C 3,2 km/h (1 Bft) 98,11 %
11.09.2016 20:52 20,6 C 85 % 1016,7 hPa 0,0 l/m 2,3 km/h (1 Bft) SO 141 0 min 0,000 mm 0,0 UV-I 0 W/m 18,0 C 20,6 C 3,2 km/h (1 Bft) 97,87 %
11.09.2016 20:54 20,4 C 85 % 1016,8 hPa 0,0 l/m 5,0 km/h (1 Bft) S 169 0 min 0,000 mm 0,0 UV-I 0 W/m 17,8 C 20,4 C 8,0 km/h (2 Bft) 97,14 %
11.09.2016 20:56 20,4 C 86 % 1016,8 hPa 0,0 l/m 4,8 km/h (1 Bft) S 169 0 min 0,000 mm 0,0 UV-I 0 W/m 18,0 C 20,4 C 8,0 km/h (2 Bft) 96,43 %
11.09.2016 20:58 20,3 C 86 % 1016,8 hPa 0,0 l/m 5,1 km/h (1 Bft) S 169 0 min 0,000 mm 0,0 UV-I 0 W/m 17,9 C 20,3 C 6,4 km/h (2 Bft) 97,73 %
11.09.2016 21:00 20,3 C 86 % 1016,8 hPa 0,0 l/m 4,4 km/h (1 Bft) S 169 0 min 0,000 mm 0,0 UV-I 0 W/m 17,9 C 20,3 C 8,0 km/h (2 Bft) 97,87 %
11.09.2016 21:02 20,4 C 87 % 1016,9 hPa 0,0 l/m 4,8 km/h (1 Bft) S 169 0 min 0,000 mm 0,0 UV-I 0 W/m 18,2 C 20,4 C 8,0 km/h (2 Bft) 97,56 %
11.09.2016 21:04 20,5 C 88 % 1016,9 hPa 0,0 l/m 5,0 km/h (1 Bft) S 171 0 min 0,000 mm 0,0 UV-I 0 W/m 18,4 C 20,5 C 6,4 km/h (2 Bft) 98,00 %
11.09.2016 21:06 20,6 C 87 % 1016,9 hPa 0,0 l/m 2,7 km/h (1 Bft) S 171 0 min 0,000 mm 0,0 UV-I 0 W/m 18,4 C 20,6 C 6,4 km/h (2 Bft) 97,87 %
11.09.2016 21:08 20,7 C 87 % 1016,9 hPa 0,0 l/m 3,5 km/h (1 Bft) S 171 0 min 0,000 mm 0,0 UV-I 0 W/m 18,5 C 20,7 C 6,4 km/h (2 Bft) 100,00 %
11.09.2016 21:10 20,7 C 87 % 1016,9 hPa 0,0 l/m 4,0 km/h (1 Bft) S 171 0 min 0,000 mm 0,0 UV-I 0 W/m 18,5 C 20,7 C 6,4 km/h (2 Bft) 100,00 %
11.09.2016 21:12 20,7 C 86 % 1016,9 hPa 0,0 l/m 3,5 km/h (1 Bft) S 173 0 min 0,000 mm 0,0 UV-I 0 W/m 18,3 C 20,7 C 6,4 km/h (2 Bft) 100,00 %
11.09.2016 21:14 20,6 C 86 % 1016,9 hPa 0,0 l/m 4,1 km/h (1 Bft) S 176 0 min 0,000 mm 0,0 UV-I 0 W/m 18,2 C 20,6 C 4,8 km/h (1 Bft) 96,15 %
11.09.2016 21:16 20,5 C 87 % 1016,9 hPa 0,0 l/m 4,1 km/h (1 Bft) S 179 0 min 0,000 mm 0,0 UV-I 0 W/m 18,3 C 20,5 C 4,8 km/h (1 Bft) 100,00 %
11.09.2016 21:18 20,4 C 88 % 1016,9 hPa 0,0 l/m 3,1 km/h (1 Bft) S 180 0 min 0,000 mm 0,0 UV-I 0 W/m 18,3 C 20,4 C 4,8 km/h (1 Bft) 100,00 %
11.09.2016 21:20 20,4 C 88 % 1016,9 hPa 0,0 l/m 3,1 km/h (1 Bft) S 180 0 min 0,000 mm 0,0 UV-I 0 W/m 18,3 C 20,4 C 4,8 km/h (1 Bft) 100,00 %
11.09.2016 21:22 20,3 C 87 % 1016,9 hPa 0,0 l/m 2,7 km/h (1 Bft) S 180 0 min 0,000 mm 0,0 UV-I 0 W/m 18,1 C 20,3 C 3,2 km/h (1 Bft) 98,00 %
11.09.2016 21:24 20,3 C 88 % 1016,9 hPa 0,0 l/m 2,3 km/h (1 Bft) S 180 0 min 0,000 mm 0,0 UV-I 0 W/m 18,2 C 20,3 C 4,8 km/h (1 Bft) 100,00 %
11.09.2016 21:26 20,2 C 88 % 1016,9 hPa 0,0 l/m 2,0 km/h (1 Bft) S 180 0 min 0,000 mm 0,0 UV-I 0 W/m 18,1 C 20,2 C 4,8 km/h (1 Bft) 100,00 %
11.09.2016 21:28 20,2 C 89 % 1016,9 hPa 0,0 l/m 0,8 km/h (0 Bft) S 180 0 min 0,000 mm 0,0 UV-I 0 W/m 18,3 C 20,2 C 1,6 km/h (1 Bft) 100,00 %
11.09.2016 21:30 20,2 C 89 % 1017,0 hPa 0,0 l/m 0,7 km/h (0 Bft) S 180 0 min 0,000 mm 0,0 UV-I 0 W/m 18,3 C 20,2 C 1,6 km/h (1 Bft) 100,00 %
11.09.2016 21:32 20,3 C 89 % 1017,0 hPa 0,0 l/m 1,0 km/h (0 Bft) S 180 0 min 0,000 mm 0,0 UV-I 0 W/m 18,4 C 20,3 C 3,2 km/h (1 Bft) 100,00 %
11.09.2016 21:34 20,3 C 89 % 1017,1 hPa 0,0 l/m 0,8 km/h (0 Bft) S 180 0 min 0,000 mm 0,0 UV-I 0 W/m 18,4 C 20,3 C 1,6 km/h (1 Bft) 98,00 %
11.09.2016 21:36 20,3 C 89 % 1017,0 hPa 0,0 l/m 0,6 km/h (0 Bft) S 180 0 min 0,000 mm 0,0 UV-I 0 W/m 18,4 C 20,3 C 1,6 km/h (1 Bft) 100,00 %
11.09.2016 21:38 20,3 C 89 % 1017,0 hPa 0,0 l/m 0,3 km/h (0 Bft) S 180 0 min 0,000 mm 0,0 UV-I 0 W/m 18,4 C 20,3 C 1,6 km/h (1 Bft) 97,87 %
11.09.2016 21:40 20,4 C 89 % 1017,1 hPa 0,0 l/m 2,1 km/h (1 Bft) S 180 0 min 0,000 mm 0,0 UV-I 0 W/m 18,5 C 20,4 C 4,8 km/h (1 Bft) 100,00 %
11.09.2016 21:42 20,4 C 89 % 1017,1 hPa 0,0 l/m 3,4 km/h (1 Bft) S 180 0 min 0,000 mm 0,0 UV-I 0 W/m 18,5 C 20,4 C 4,8 km/h (1 Bft) 100,00 %
11.09.2016 21:44 20,4 C 88 % 1017,1 hPa 0,0 l/m 4,7 km/h (1 Bft) S 180 0 min 0,000 mm 0,0 UV-I 0 W/m 18,3 C 20,4 C 6,4 km/h (2 Bft) 100,00 %
11.09.2016 21:46 20,4 C 88 % 1017,1 hPa 0,0 l/m 4,4 km/h (1 Bft) S 180 0 min 0,000 mm 0,0 UV-I 0 W/m 18,3 C 20,4 C 6,4 km/h (2 Bft) 100,00 %
11.09.2016 21:48 20,3 C 89 % 1017,1 hPa 0,0 l/m 4,4 km/h (1 Bft) S 180 0 min 0,000 mm 0,0 UV-I 0 W/m 18,4 C 20,3 C 6,4 km/h (2 Bft) 97,56 %
11.09.2016 21:50 20,3 C 89 % 1017,1 hPa 0,0 l/m 4,4 km/h (1 Bft) S 180 0 min 0,000 mm 0,0 UV-I 0 W/m 18,4 C 20,3 C 6,4 km/h (2 Bft) 98,39 %
11.09.2016 21:52 20,4 C 89 % 1017,0 hPa 0,0 l/m 2,8 km/h (1 Bft) S 180 0 min 0,000 mm 0,0 UV-I 0 W/m 18,5 C 20,4 C 4,8 km/h (1 Bft) 100,00 %
11.09.2016 21:54 20,4 C 89 % 1017,1 hPa 0,0 l/m 2,9 km/h (1 Bft) S 180 0 min 0,000 mm 0,0 UV-I 0 W/m 18,5 C 20,4 C 4,8 km/h (1 Bft) 100,00 %
11.09.2016 21:56 20,5 C 89 % 1017,1 hPa 0,0 l/m 4,7 km/h (1 Bft) S 180 0 min 0,000 mm 0,0 UV-I 0 W/m 18,6 C 20,5 C 6,4 km/h (2 Bft) 97,87 %
11.09.2016 21:58 20,5 C 88 % 1017,1 hPa 0,0 l/m 3,9 km/h (1 Bft) S 180 0 min 0,000 mm 0,0 UV-I 0 W/m 18,4 C 20,5 C 4,8 km/h (1 Bft) 100,00 %
11.09.2016 22:00 20,5 C 88 % 1017,1 hPa 0,0 l/m 2,3 km/h (1 Bft) S 180 0 min 0,000 mm 0,0 UV-I 0 W/m 18,4 C 20,5 C 3,2 km/h (1 Bft) 100,00 %
11.09.2016 22:02 20,4 C 88 % 1017,1 hPa 0,0 l/m 3,1 km/h (1 Bft) S 180 0 min 0,000 mm 0,0 UV-I 0 W/m 18,3 C 20,4 C 4,8 km/h (1 Bft) 100,00 %
11.09.2016 22:04 20,4 C 88 % 1017,1 hPa 0,0 l/m 1,1 km/h (1 Bft) S 180 0 min 0,000 mm 0,0 UV-I 0 W/m 18,3 C 20,4 C 3,2 km/h (1 Bft) 100,00 %
11.09.2016 22:06 20,3 C 88 % 1017,1 hPa 0,0 l/m 2,0 km/h (1 Bft) S 180 0 min 0,000 mm 0,0 UV-I 0 W/m 18,2 C 20,3 C 3,2 km/h (1 Bft) 98,00 %
11.09.2016 22:08 20,2 C 89 % 1017,1 hPa 0,0 l/m 4,1 km/h (1 Bft) S 180 0 min 0,000 mm 0,0 UV-I 0 W/m 18,3 C 20,2 C 4,8 km/h (1 Bft) 100,00 %
11.09.2016 22:10 20,2 C 89 % 1017,1 hPa 0,0 l/m 3,6 km/h (1 Bft) S 180 0 min 0,000 mm 0,0 UV-I 0 W/m 18,3 C 20,2 C 4,8 km/h (1 Bft) 100,00 %
11.09.2016 22:12 20,1 C 89 % 1017,1 hPa 0,0 l/m 3,2 km/h (1 Bft) S 180 0 min 0,000 mm 0,0 UV-I 0 W/m 18,2 C 20,1 C 4,8 km/h (1 Bft) 97,14 %
11.09.2016 22:14 20,1 C 89 % 1017,1 hPa 0,0 l/m 2,8 km/h (1 Bft) S 180 0 min 0,000 mm 0,0 UV-I 0 W/m 18,2 C 20,1 C 4,8 km/h (1 Bft) 100,00 %
11.09.2016 22:16 20,1 C 89 % 1017,1 hPa 0,0 l/m 2,0 km/h (1 Bft) S 180 0 min 0,000 mm 0,0 UV-I 0 W/m 18,2 C 20,1 C 3,2 km/h (1 Bft) 100,00 %
11.09.2016 22:18 20,0 C 89 % 1017,1 hPa 0,0 l/m 1,9 km/h (1 Bft) S 180 0 min 0,000 mm 0,0 UV-I 0 W/m 18,1 C 20,0 C 3,2 km/h (1 Bft) 100,00 %
11.09.2016 22:20 20,0 C 89 % 1017,1 hPa 0,0 l/m 3,4 km/h (1 Bft) S 180 0 min 0,000 mm 0,0 UV-I 0 W/m 18,1 C 20,0 C 4,8 km/h (1 Bft) 97,87 %
11.09.2016 22:22 19,9 C 89 % 1017,1 hPa 0,0 l/m 3,5 km/h (1 Bft) S 180 0 min 0,000 mm 0,0 UV-I 0 W/m 18,0 C 19,9 C 4,8 km/h (1 Bft) 100,00 %
11.09.2016 22:24 19,9 C 89 % 1017,1 hPa 0,0 l/m 2,3 km/h (1 Bft) S 180 0 min 0,000 mm 0,0 UV-I 0 W/m 18,0 C 19,9 C 3,2 km/h (1 Bft) 100,00 %
11.09.2016 22:26 19,9 C 90 % 1017,1 hPa 0,0 l/m 2,4 km/h (1 Bft) S 180 0 min 0,000 mm 0,0 UV-I 0 W/m 18,2 C 19,9 C 4,8 km/h (1 Bft) 100,00 %
11.09.2016 22:28 19,9 C 90 % 1017,0 hPa 0,0 l/m 1,0 km/h (0 Bft) S 180 0 min 0,000 mm 0,0 UV-I 0 W/m 18,2 C 19,9 C 3,2 km/h (1 Bft) 100,00 %
11.09.2016 22:30 19,9 C 90 % 1017,1 hPa 0,0 l/m 1,2 km/h (1 Bft) S 180 0 min 0,000 mm 0,0 UV-I 0 W/m 18,2 C 19,9 C 3,2 km/h (1 Bft) 98,11 %
11.09.2016 22:32 20,0 C 89 % 1017,1 hPa 0,0 l/m 0,6 km/h (0 Bft) S 180 0 min 0,000 mm 0,0 UV-I 0 W/m 18,1 C 20,0 C 3,2 km/h (1 Bft) 95,74 %
11.09.2016 22:34 20,0 C 89 % 1017,1 hPa 0,0 l/m 0,7 km/h (0 Bft) S 180 0 min 0,000 mm 0,0 UV-I 0 W/m 18,1 C 20,0 C 1,6 km/h (1 Bft) 97,22 %
11.09.2016 22:36 20,1 C 89 % 1017,1 hPa 0,0 l/m 1,9 km/h (1 Bft) S 180 0 min 0,000 mm 0,0 UV-I 0 W/m 18,2 C 20,1 C 3,2 km/h (1 Bft) 96,23 %
11.09.2016 22:38 20,1 C 89 % 1017,1 hPa 0,0 l/m 2,4 km/h (1 Bft) S 180 0 min 0,000 mm 0,0 UV-I 0 W/m 18,2 C 20,1 C 4,8 km/h (1 Bft) 97,87 %
11.09.2016 22:40 20,1 C 89 % 1017,1 hPa 0,0 l/m 2,8 km/h (1 Bft) S 180 0 min 0,000 mm 0,0 UV-I 0 W/m 18,2 C 20,1 C 4,8 km/h (1 Bft) 97,50 %
11.09.2016 22:42 20,1 C 89 % 1017,1 hPa 0,0 l/m 0,3 km/h (0 Bft) S 180 0 min 0,000 mm 0,0 UV-I 0 W/m 18,2 C 20,1 C 1,6 km/h (1 Bft) 95,12 %
11.09.2016 22:44 19,9 C 89 % 1017,1 hPa 0,0 l/m 0,0 km/h (0 Bft) S 180 0 min 0,000 mm 0,0 UV-I 0 W/m 18,0 C 19,9 C 0,0 km/h (0 Bft) 95,16 %
11.09.2016 22:46 19,8 C 88 % 1017,2 hPa 0,0 l/m 0,0 km/h (0 Bft) S 180 0 min 0,000 mm 0,0 UV-I 0 W/m 17,8 C 19,8 C 0,0 km/h (0 Bft) 97,37 %
11.09.2016 22:48 19,7 C 89 % 1017,1 hPa 0,0 l/m 0,0 km/h (0 Bft) S 180 0 min 0,000 mm 0,0 UV-I 0 W/m 17,8 C 19,7 C 0,0 km/h (0 Bft) 98,11 %
11.09.2016 22:50 19,6 C 90 % 1017,1 hPa 0,0 l/m 0,0 km/h (0 Bft) S 180 0 min 0,000 mm 0,0 UV-I 0 W/m 17,9 C 19,6 C 0,0 km/h (0 Bft) 97,87 %
11.09.2016 22:52 19,4 C 90 % 1017,2 hPa 0,0 l/m 0,0 km/h (0 Bft) S 180 0 min 0,000 mm 0,0 UV-I 0 W/m 17,7 C 19,4 C 0,0 km/h (0 Bft) 98,00 %
11.09.2016 22:54 19,3 C 91 % 1017,1 hPa 0,0 l/m 0,1 km/h (0 Bft) S 180 0 min 0,000 mm 0,0 UV-I 0 W/m 17,8 C 19,3 C 1,6 km/h (1 Bft) 97,37 %
11.09.2016 22:56 19,2 C 91 % 1017,2 hPa 0,0 l/m 1,3 km/h (1 Bft) S 180 0 min 0,000 mm 0,0 UV-I 0 W/m 17,7 C 19,2 C 3,2 km/h (1 Bft) 98,00 %
11.09.2016 22:58 19,2 C 91 % 1017,2 hPa 0,0 l/m 0,9 km/h (0 Bft) S 180 0 min 0,000 mm 0,0 UV-I 0 W/m 17,7 C 19,2 C 3,2 km/h (1 Bft) 96,00 %
11.09.2016 23:00 19,1 C 91 % 1017,2 hPa 0,0 l/m 0,1 km/h (0 Bft) S 180 0 min 0,000 mm 0,0 UV-I 0 W/m 17,6 C 19,1 C 1,6 km/h (1 Bft) 98,00 %
11.09.2016 23:02 18,9 C 90 % 1017,2 hPa 0,0 l/m 0,4 km/h (0 Bft) S 180 0 min 0,000 mm 0,0 UV-I 0 W/m 17,2 C 18,9 C 1,6 km/h (1 Bft) 97,37 %
11.09.2016 23:04 18,8 C 91 % 1017,1 hPa 0,0 l/m 0,1 km/h (0 Bft) S 180 0 min 0,000 mm 0,0 UV-I 0 W/m 17,3 C 18,8 C 1,6 km/h (1 Bft) 100,00 %
11.09.2016 23:06 18,8 C 92 % 1017,2 hPa 0,0 l/m 0,0 km/h (0 Bft) S 180 0 min 0,000 mm 0,0 UV-I 0 W/m 17,5 C 18,8 C 0,0 km/h (0 Bft) 97,87 %
11.09.2016 23:08 18,7 C 92 % 1017,2 hPa 0,0 l/m 0,0 km/h (0 Bft) S 180 0 min 0,000 mm 0,0 UV-I 0 W/m 17,4 C 18,7 C 0,0 km/h (0 Bft) 100,00 %
11.09.2016 23:10 18,7 C 92 % 1017,1 hPa 0,0 l/m 0,0 km/h (0 Bft) S 180 0 min 0,000 mm 0,0 UV-I 0 W/m 17,4 C 18,7 C 0,0 km/h (0 Bft) 100,00 %
11.09.2016 23:12 18,6 C 92 % 1017,2 hPa 0,0 l/m 0,0 km/h (0 Bft) S 180 0 min 0,000 mm 0,0 UV-I 0 W/m 17,3 C 18,6 C 0,0 km/h (0 Bft) 100,00 %
11.09.2016 23:14 18,6 C 93 % 1017,2 hPa 0,0 l/m 0,1 km/h (0 Bft) S 180 0 min 0,000 mm 0,0 UV-I 0 W/m 17,4 C 18,6 C 1,6 km/h (1 Bft) 98,00 %
11.09.2016 23:16 18,7 C 93 % 1017,2 hPa 0,0 l/m 1,6 km/h (1 Bft) S 180 0 min 0,000 mm 0,0 UV-I 0 W/m 17,5 C 18,7 C 3,2 km/h (1 Bft) 100,00 %
11.09.2016 23:18 18,4 C 92 % 1017,2 hPa 0,0 l/m 1,2 km/h (1 Bft) S 180 0 min 0,000 mm 0,0 UV-I 0 W/m 17,1 C 18,4 C 3,2 km/h (1 Bft) 100,00 %
11.09.2016 23:20 18,3 C 92 % 1017,2 hPa 0,0 l/m 0,1 km/h (0 Bft) S 180 0 min 0,000 mm 0,0 UV-I 0 W/m 17,0 C 18,3 C 1,6 km/h (1 Bft) 100,00 %
11.09.2016 23:22 18,1 C 92 % 1017,3 hPa 0,0 l/m 0,7 km/h (0 Bft) S 180 0 min 0,000 mm 0,0 UV-I 0 W/m 16,8 C 18,1 C 3,2 km/h (1 Bft) 100,00 %
11.09.2016 23:24 18,1 C 93 % 1017,3 hPa 0,0 l/m 2,2 km/h (1 Bft) S 180 0 min 0,000 mm 0,0 UV-I 0 W/m 16,9 C 18,1 C 3,2 km/h (1 Bft) 100,00 %
11.09.2016 23:26 18,0 C 93 % 1017,3 hPa 0,0 l/m 2,8 km/h (1 Bft) S 180 0 min 0,000 mm 0,0 UV-I 0 W/m 16,8 C 18,0 C 4,8 km/h (1 Bft) 97,56 %
11.09.2016 23:28 18,1 C 94 % 1017,3 hPa 0,0 l/m 4,0 km/h (1 Bft) SO 145 0 min 0,000 mm 0,0 UV-I 0 W/m 17,1 C 18,1 C 6,4 km/h (2 Bft) 100,00 %
11.09.2016 23:30 18,3 C 95 % 1017,3 hPa 0,0 l/m 4,5 km/h (1 Bft) SO 126 0 min 0,000 mm 0,0 UV-I 0 W/m 17,5 C 18,3 C 4,8 km/h (1 Bft) 100,00 %
11.09.2016 23:32 18,4 C 95 % 1017,3 hPa 0,0 l/m 4,6 km/h (1 Bft) O-SO 121 0 min 0,000 mm 0,0 UV-I 0 W/m 17,6 C 18,4 C 6,4 km/h (2 Bft) 100,00 %
11.09.2016 23:34 18,5 C 94 % 1017,3 hPa 0,0 l/m 4,5 km/h (1 Bft) O-SO 119 0 min 0,000 mm 0,0 UV-I 0 W/m 17,5 C 18,5 C 4,8 km/h (1 Bft) 100,00 %
11.09.2016 23:36 18,5 C 94 % 1017,2 hPa 0,0 l/m 3,5 km/h (1 Bft) O-SO 119 0 min 0,000 mm 0,0 UV-I 0 W/m 17,5 C 18,5 C 4,8 km/h (1 Bft) 100,00 %
11.09.2016 23:38 18,6 C 94 % 1017,2 hPa 0,0 l/m 3,3 km/h (1 Bft) O-SO 119 0 min 0,000 mm 0,0 UV-I 0 W/m 17,6 C 18,6 C 4,8 km/h (1 Bft) 100,00 %
11.09.2016 23:40 18,6 C 94 % 1017,2 hPa 0,0 l/m 2,7 km/h (1 Bft) O-SO 119 0 min 0,000 mm 0,0 UV-I 0 W/m 17,6 C 18,6 C 3,2 km/h (1 Bft) 100,00 %
11.09.2016 23:42 18,7 C 94 % 1017,2 hPa 0,0 l/m 1,8 km/h (1 Bft) O-SO 119 0 min 0,000 mm 0,0 UV-I 0 W/m 17,7 C 18,7 C 3,2 km/h (1 Bft) 100,00 %
11.09.2016 23:44 18,6 C 93 % 1017,2 hPa 0,0 l/m 0,0 km/h (0 Bft) O-SO 119 0 min 0,000 mm 0,0 UV-I 0 W/m 17,4 C 18,6 C 0,0 km/h (0 Bft) 100,00 %
11.09.2016 23:46 18,4 C 93 % 1017,2 hPa 0,0 l/m 0,0 km/h (0 Bft) O-SO 119 0 min 0,000 mm 0,0 UV-I 0 W/m 17,2 C 18,4 C 0,0 km/h (0 Bft) 100,00 %
11.09.2016 23:48 18,3 C 93 % 1017,2 hPa 0,0 l/m 0,0 km/h (0 Bft) O-SO 119 0 min 0,000 mm 0,0 UV-I 0 W/m 17,1 C 18,3 C 1,6 km/h (1 Bft) 97,87 %
11.09.2016 23:50 18,3 C 93 % 1017,2 hPa 0,0 l/m 0,0 km/h (0 Bft) O-SO 119 0 min 0,000 mm 0,0 UV-I 0 W/m 17,1 C 18,3 C 0,0 km/h (0 Bft) 100,00 %
11.09.2016 23:52 18,2 C 93 % 1017,3 hPa 0,0 l/m 0,0 km/h (0 Bft) O-SO 119 0 min 0,000 mm 0,0 UV-I 0 W/m 17,0 C 18,2 C 0,0 km/h (0 Bft) 100,00 %
11.09.2016 23:54 18,1 C 93 % 1017,2 hPa 0,0 l/m 0,0 km/h (0 Bft) O-SO 119 0 min 0,000 mm 0,0 UV-I 0 W/m 16,9 C 18,1 C 0,0 km/h (0 Bft) 100,00 %
11.09.2016 23:56 18,0 C 93 % 1017,2 hPa 0,0 l/m 0,2 km/h (0 Bft) O-SO 119 0 min 0,000 mm 0,0 UV-I 0 W/m 16,8 C 18,0 C 1,6 km/h (1 Bft) 100,00 %
11.09.2016 23:58 17,9 C 93 % 1017,2 hPa 0,0 l/m 0,0 km/h (0 Bft) O-SO 119 0 min 0,000 mm 0,0 UV-I 0 W/m 16,8 C 17,9 C 1,6 km/h (1 Bft) 100,00 %
_ Min-Zeit 06:24 16:26 00:00 - 00:02 - - - - - - 06:24 06:24 00:02 13:22
Minimum _ 14,3 C 56 % 1014,0 hPa - 0,0 km/h (0 Bft) - - - - - - 13,7 C 14,3 C 0,0 km/h (0 Bft) 91,49 %
_ Max-Zeit 16:34 06:30 11:12 00:00 12:18 - - 08:38 14:00 12:46 13:14 18:50 16:34 12:18 00:00
Maximum _ 27,3 C 97 % 1017,3 hPa 0,0 l/m 6,4 km/h
N-NO (2 Bft)
- - 2 min 0,431 mm 3,9 UV-I 666 W/m 19,6 C 27,3 C 12,9 km/h
N-NO (3 Bft)
100,00 %
Durchschnitt _ 20,4 C 82 % 1016,0 hPa #0,0 l/m 2,0 km/h (1 Bft) S - #10:22 h #3,099 mm 2,4 UV-I 372 W/m 16,8 C 20,4 C 3,7 km/h (1 Bft) 98,74 %